GFSFLT1_prec_cloud_003.txt.gz
Cloud_Cover
47 7 26 13 20 25 10 5 5 3 2 0 1 3 5 7 59 24 5 5 5 5 5 5 5 6 24 55 41 19 5 1
13 2 4 6 4 5 5 5 5 5 5 5 5 5 5 5 5 29 51 28 5 5 5 5 5 5 5 8 7 5 2 0
7 7 0 5 5 8 5 5 10 24 9 5 5 5 1 1 2 4 4 5 5 5 4 5 5 5 5 5 6 42 12 5
19 9 5 3 3 1 2 5 5 5 2 5 5 1 0 3 34 52 62 52 5 5 5 5 26 35 4 5 5 48 97 50
3 5 5 3 5 5 7 72 85 94 100 94 99 100 100 100 100 100 100 100 100 90 60 25 76 92 98 80 83 24 5 13
70 5 5 31 5 6 59 46 38 60 25 100 100 100 100 100 100 100 100 100 91 26 36 61 100 100 98 100 99 100 100 100
8 43 82 29 32 5 5 64 72 52 44 52 40 55 32 4 4 2 0 0 0 0 13 76 98 42 45 100 100 78 61 98
26 90 8 28 10 5 5 6 5 5 5 5 5 5 5 0 0 0 0 0 0 0 4 5 100 98 100 100 100 100 97 98
77 22 5 6 3 2 0 5 5 4 0 0 0 5 1 5 0 0 0 0 0 0 4 12 100 99 100 100 100 100 100 100
5 5 5 5 5 0 0 0 0 0 0 0 0 0 5 0 0 0 0 0 0 5 16 35 96 100 100 100 100 100 100 100
5 5 18 5 5 5 3 0 5 3 3 1 0 0 0 0 0 0 1 4 5 76 100 100 100 100 100 100 100 100 100 100
5 42 72 52 68 16 5 5 5 5 5 5 1 0 0 0 4 5 5 56 87 100 100 100 100 100 100 100 100 100 100 100
25 99 89 16 80 51 53 45 99 13 5 5 5 4 3 2 4 37 89 100 100 100 94 73 100 100 100 100 100 100 100 100
32 66 68 100 88 78 46 88 46 18 82 21 1 0 0 5 36 100 100 100 100 100 100 100 100 100 100 100 92 75 100 100
79 99 99 100 98 76 94 6 56 31 49 61 10 5 5 60 100 100 91 100 100 100 100 100 100 100 100 100 100 100 74 100
14 86 48 6 12 11 81 75 13 99 97 38 39 87 100 100 87 100 100 100 100 100 100 100 100 100 100 100 100 100 100 100
5 12 14 5 19 99 24 27 64 5 7 86 100 100 100 100 100 100 100 100 100 100 100 100 100 100 100 100 100 100 100 100
99 71 98 100 100 100 100 90 27 5 29 12 51 100 92 100 100 100 100 100 100 100 100 100 100 100 100 100 83 82 40 5
100 100 100 100 100 100 100 100 100 79 84 93 96 94 92 97 100 100 100 100 100 100 100 100 100 100 100 60 36 5 5 5

GFSFLT1_prec_cloud_006.txt.gz
Cloud_Cover
0 0 0 0 0 0 3 5 5 5 8 5 5 5 2 5 4 5 5 5 5 5 4 4 4 0 0 0 0 0 0 0
0 0 0 0 0 0 0 5 5 5 5 5 5 5 5 5 5 0 1 1 0 0 0 0 0 1 3 1 0 0 0 0
8 5 5 0 0 2 5 5 5 5 1 0 0 1 1 3 9 88 26 39 32 23 12 77 73 31 8 5 5 4 0 0
3 5 5 0 5 5 5 5 5 5 8 31 77 90 68 25 96 100 95 81 60 8 18 3 1 5 5 5 5 5 5 5
1 0 0 0 1 5 5 36 51 80 41 36 16 6 5 5 6 4 2 0 0 0 0 0 4 5 5 41 60 90 13 5
0 1 2 0 5 5 45 19 5 5 5 5 5 5 5 5 0 0 0 0 0 0 0 0 0 0 3 46 100 100 100 97
5 5 5 5 5 5 4 5 5 5 5 6 19 5 2 0 0 0 0 0 0 0 0 0 0 0 0 1 50 88 98 80
11 40 16 9 5 5 5 5 5 7 5 5 5 5 5 4 0 0 0 0 0 0 0 0 0 0 0 0 14 99 53 97
80 43 42 5 5 5 32 30 73 97 100 10 5 5 20 69 26 4 5 0 0 75 18 0 4 5 5 51 95 100 100 100
36 88 98 100 100 98 100 100 100 98 97 79 96 92 65 76 85 6 5 5 5 22 5 5 6 67 87 97 100 100 100 100
77 100 100 56 24 87 63 55 5 25 5 8 27 59 60 5 3 3 5 5 5 78 80 66 100 100 97 57 100 100 100 100
82 36 91 71 5 40 55 5 66 32 66 89 92 73 20 5 5 1 4 5 78 95 96 71 100 100 100 100 100 100 100 100
5 7 5 84 30 37 56 74 72 77 53 39 95 100 95 25 6 96 100 100 100 38 97 100 100 100 100 100 100 100 100 100
61 78 92 99 92 52 88 84 78 99 80 97 100 100 100 100 100 100 88 81 57 91 100 100 100 100 100 100 100 100 100 100
5 10 5 59 80 71 67 100 100 100 100 100 100 100 100 100 94 33 94 100 98 100 100 100 100 100 100 100 100 100 100 100
13 5 16 78 99 95 100 100 100 97 100 100 100 100 100 100 100 99 79 90 100 100 100 100 100 100 100 100 100 100 100 91
69 99 100 100 94 99 100 100 100 100 92 100 100 100 100 100 85 83 100 100 100 100 100 100 100 100 100 100 100 100 100 100
100 100 100 93 94 81 89 100 100 100 100 84 85 84 86 100 87 88 52 100 100 100 100 100 100 100 100 100 100 100 100 100
100 100 99 100 100 99 100 94 100 100 30 42 14 46 98 100 99 85 94 90 74 100 100 100 100 100 100 99 100 98 93 70

GFSFLT1_prec_cloud_009.txt.gz
Cloud_Cover
0 0 0 0 0 0 0 0 5 5 5 5 5 0 0 4 5 4 0 0 2 0 0 0 0 0 0 0 1 2 4 0
0 0 0 0 0 0 5 5 5 5 5 0 0 0 0 0 0 0 0 0 0 0 0 10 14 8 4 0 2 4 2 0
0 0 0 0 5 4 5 5 5 5 5 4 0 2 2 3 5 27 5 5 5 53 60 15 0 0 0 0 0 3 5 5
0 0 0 5 5 4 5 1 0 0 0 1 2 5 12 15 5 5 7 15 19 5 0 0 0 0 0 0 0 0 5 5
0 0 0 1 5 5 5 5 4 4 5 5 5 5 5 5 5 5 5 5 5 5 2 0 0 0 0 0 0 0 5 31
5 5 5 5 5 5 8 31 5 6 69 40 7 17 44 5 5 5 5 5 5 0 0 0 2 0 1 2 4 6 4 17
5 5 5 10 60 25 54 42 86 96 90 49 67 35 18 5 5 5 7 5 5 5 5 3 5 5 5 30 92 66 86 10
5 6 6 5 10 54 90 100 51 28 82 97 80 16 5 7 42 55 7 5 5 5 5 5 5 9 38 88 66 98 100 100
74 6 80 95 88 96 73 7 8 35 51 15 19 87 90 73 85 10 34 13 10 5 13 5 6 90 91 87 19 100 100 100
44 5 66 100 100 100 100 100 99 62 11 66 80 67 64 69 95 100 99 100 98 99 79 54 10 41 28 96 100 100 100 100
32 66 82 93 96 60 46 56 39 11 48 85 100 97 74 97 73 42 85 97 66 33 39 96 58 92 98 100 100 100 100 100
89 18 16 50 37 30 7 40 96 100 100 100 100 100 57 70 36 70 99 76 88 81 65 76 95 100 100 100 100 100 100 100
29 5 6 5 5 5 83 100 100 100 100 100 90 86 79 100 88 22 31 97 88 98 100 100 100 100 100 100 100 100 100 100
42 19 5 5 9 97 100 100 100 100 100 100 100 99 96 50 54 95 51 98 100 100 99 100 100 100 100 100 100 100 100 100
5 40 9 49 100 100 100 100 100 100 100 100 97 84 48 95 100 98 99 100 97 96 95 100 100 100 100 100 100 100 100 100
9 92 100 100 100 100 100 100 100 100 100 93 60 48 100 96 97 100 100 100 100 100 93 100 100 84 100 100 100 100 100 100
100 100 100 100 100 100 100 100 100 77 100 100 99 73 22 15 5 5 8 98 100 100 100 100 100 100 100 100 100 87 100 100
100 100 100 100 100 77 92 43 64 34 22 16 12 13 5 5 5 5 5 5 5 5 5 51 97 96 89 94 54 18 19 46
100 100 100 100 39 10 69 60 62 16 5 5 72 83 48 5 5 5 5 5 5 5 6 23 50 50 32 41 67 100 100 100

GFSFLT1_prec_cloud_012.txt.gz
Cloud_Cover
0 0 0 0 0 0 0 2 5 5 14 5 5 5 5 5 0 0 0 0 0 0 0 0 0 0 0 0 1 3 4 5
0 0 0 0 0 0 5 5 5 14 100 11 5 5 2 3 0 2 5 1 1 0 3 10 32 60 68 5 5 5 5 4
0 0 0 0 0 4 5 15 73 100 100 75 5 5 5 5 5 5 5 5 5 5 6 20 15 57 82 31 5 5 5 0
0 3 0 0 5 27 99 100 100 75 24 5 5 52 6 22 60 26 6 5 15 5 5 6 16 6 5 29 81 75 8 20
5 0 3 5 5 71 75 12 5 23 62 46 63 14 5 36 8 14 5 5 5 5 6 24 11 43 66 78 86 46 21 78
0 3 5 5 5 6 6 58 70 84 93 22 5 7 16 47 7 5 5 5 8 7 5 5 3 5 5 5 5 5 34 74
3 10 44 50 35 8 38 60 55 81 100 55 85 84 52 23 5 8 76 82 25 100 70 63 42 5 16 10 21 72 79 76
5 5 5 5 14 61 20 52 97 86 95 94 73 72 37 71 27 46 80 99 100 95 6 13 29 20 33 86 68 62 100 100
48 31 25 67 46 5 44 8 50 44 58 44 39 41 76 97 100 100 100 100 88 7 7 49 84 94 100 100 100 100 100 100
5 5 42 5 8 45 13 6 75 40 31 5 5 38 100 100 100 100 100 66 21 8 96 100 100 100 100 100 100 100 100 100
5 5 5 92 37 13 5 36 40 67 5 6 46 64 97 100 100 99 25 6 58 100 100 100 100 100 98 100 100 100 100 100
66 62 16 62 7 5 29 6 6 5 70 100 100 100 100 100 100 20 70 96 77 96 100 100 100 100 100 100 100 100 100 100
81 90 52 29 9 5 5 5 91 100 100 100 100 100 100 100 64 86 99 100 100 100 100 99 99 100 100 100 100 100 100 100
74 71 49 13 62 70 77 62 100 100 100 100 100 100 54 90 88 99 100 95 96 100 100 100 100 100 100 100 100 100 100 100
77 78 88 69 60 62 92 100 100 100 100 100 64 58 95 74 82 94 97 81 90 97 100 100 96 85 98 100 100 100 100 100
41 59 99 84 99 100 100 100 100 100 95 94 60 16 59 93 69 37 14 7 5 5 5 5 5 20 29 48 100 100 100 100
100 97 100 100 100 100 100 100 100 99 5 66 53 50 90 71 5 5 5 5 5 5 5 5 28 11 40 12 27 27 80 99
82 100 100 100 100 100 100 100 92 18 40 77 94 100 78 77 88 99 5 5 5 5 5 8 5 18 6 6 14 5 5 12
100 100 100 100 100 100 100 99 89 25 77 94 100 92 95 99 75 14 5 5 5 5 36 60 83 83 5 5 5 6 90 99

GFSFLT1_prec_cloud_015.txt.gz
Cloud_Cover
0 0 0 0 0 0 0 2 8 5 58 66 23 5 5 48 81 5 5 5 5 4 3 2 5 5 4 5 15 4 5 74
0 0 0 0 0 0 0 5 5 80 64 78 98 85 96 87 25 5 5 5 5 5 4 5 5 5 5 5 5 6 92 100
0 0 0 0 0 0 4 5 87 100 99 100 100 96 80 64 69 13 63 14 87 74 83 62 5 5 18 71 6 29 97 100
0 0 0 0 5 5 5 66 100 100 100 71 26 88 94 88 40 32 71 16 5 5 5 5 9 10 17 9 83 99 86 50
0 0 0 5 5 5 5 18 3 5 16 89 100 98 42 100 72 69 32 5 14 5 5 5 22 82 98 84 100 100 100 13
0 0 4 4 4 5 5 5 5 26 98 100 100 100 100 92 53 5 18 93 72 7 5 6 48 88 100 100 99 99 59 5
0 4 5 0 5 5 5 9 61 83 65 47 23 69 59 37 33 16 18 32 13 47 98 100 100 100 100 100 100 74 89 86
5 5 5 5 5 5 18 51 89 79 64 98 68 70 81 88 71 99 96 71 100 100 100 96 48 94 100 100 100 100 100 82
3 5 5 7 52 95 100 79 51 15 32 50 99 53 93 95 82 100 100 100 100 100 28 97 99 100 100 100 100 100 100 85
7 15 80 100 100 90 5 29 76 65 68 43 47 59 96 100 93 100 100 100 100 100 31 89 100 100 100 99 88 100 96 82
58 97 46 39 7 70 51 10 48 35 88 92 100 98 94 93 100 100 100 100 98 61 78 100 100 100 100 100 100 100 100 100
73 71 85 84 92 100 100 100 100 98 96 57 73 86 100 100 100 49 94 76 70 73 90 95 99 78 100 92 100 100 100 100
89 98 100 100 100 82 70 74 96 96 96 100 100 100 100 88 100 100 100 100 100 96 73 55 92 92 98 100 100 100 100 100
100 100 100 100 98 65 95 73 86 99 100 100 100 100 100 96 100 100 96 100 99 100 90 61 83 68 80 81 93 78 80 98
93 87 92 71 90 75 64 84 100 100 86 98 56 33 61 94 100 100 100 99 96 33 5 5 5 5 5 7 27 18 18 41
97 38 56 98 100 100 100 82 84 95 98 44 5 68 95 100 100 99 97 73 5 5 5 5 5 5 73 5 4 5 5 6
61 100 100 100 92 78 86 86 13 5 5 28 79 98 99 100 100 97 93 5 5 5 5 24 96 100 98 5 3 5 5 5
79 78 82 91 91 65 100 99 100 91 98 100 89 76 100 100 100 100 100 24 7 62 95 100 100 100 76 5 5 5 5 33
78 92 97 74 6 5 100 100 100 100 100 100 86 97 100 100 100 100 100 100 100 100 100 98 92 100 96 7 5 37 94 100

GFSFLT1_prec_cloud_018.txt.gz
Cloud_Cover
92 22 1 0 0 0 0 0 3 12 1 4 5 5 5 68 46 5 5 5 5 5 4 5 5 5 4 5 5 5 5 5
1 3 0 0 0 0 0 3 5 5 5 74 49 49 84 80 92 82 5 43 53 5 5 5 5 4 1 5 5 1 4 2
0 0 0 0 0 0 5 66 98 70 59 60 68 5 94 99 97 68 12 62 60 71 5 0 0 0 1 0 1 0 0 4
0 0 0 0 2 32 99 43 5 74 43 4 5 5 78 96 26 90 80 23 7 3 2 3 4 5 5 5 5 5 5 87
0 0 1 5 8 6 5 5 3 1 5 5 36 54 22 5 6 5 5 5 78 91 96 75 74 12 5 5 36 93 87 58
0 0 0 0 2 5 5 5 4 5 5 5 5 5 5 11 30 76 62 60 69 100 94 38 74 28 58 97 100 100 100 92
0 0 1 0 4 4 5 4 5 5 47 17 89 75 100 100 100 100 100 100 100 100 100 100 90 97 100 100 100 73 100 100
7 5 12 18 13 5 10 13 26 15 67 82 87 87 100 100 100 100 100 100 100 99 98 100 83 60 16 40 100 100 100 100
2 3 5 5 9 5 38 36 50 100 100 100 100 100 93 87 56 48 72 100 100 86 15 5 28 35 74 78 100 100 99 38
76 96 10 14 85 36 6 68 100 100 100 100 95 100 100 100 100 100 100 100 100 94 60 90 64 85 100 100 100 100 87 91
31 6 62 47 6 97 100 100 100 100 100 100 100 100 96 65 100 96 88 63 8 5 5 52 78 71 43 76 51 60 60 90
5 5 5 73 99 100 100 92 100 79 98 100 92 39 10 9 49 6 5 2 4 5 67 5 14 37 89 98 82 94 82 61
4 5 5 6 34 62 11 100 37 100 88 13 5 5 5 84 47 5 1 5 5 5 36 5 39 19 38 26 8 6 6 16
17 59 15 5 5 6 36 8 14 5 5 5 5 5 88 5 5 2 5 5 5 22 8 5 5 5 3 5 11 90 5 4
5 7 5 27 19 5 59 8 80 6 5 5 2 4 1 5 1 0 12 61 20 5 5 5 5 21 5 5 5 5 5 0
5 5 5 5 5 5 5 5 9 5 32 8 62 54 99 37 5 5 5 64 8 5 5 5 5 20 80 31 5 1 0 0
5 5 5 5 5 22 94 34 96 99 100 92 100 66 5 5 2 2 5 98 5 5 99 96 17 66 62 1 5 5 5 5
8 5 10 83 59 11 17 94 95 45 18 36 100 73 36 47 17 5 8 54 27 86 100 94 7 20 5 5 5 53 42 5
5 60 76 93 36 46 100 5 1 12 72 97 95 97 98 72 100 6 97 71 95 100 100 78 5 5 5 14 5 5 5 5

GFSFLT1_prec_cloud_021.txt.gz
Cloud_Cover
2 4 5 1 2 0 0 0 0 0 1 7 6 5 40 100 13 5 5 21 5 5 22 79 21 14 4 0 0 0 0 0
0 0 2 5 5 0 0 0 3 5 5 41 7 5 47 6 48 5 33 22 50 5 4 0 0 0 0 0 5 0 5 4
0 0 0 17 12 0 2 36 68 7 14 13 5 5 5 5 83 81 50 9 41 5 0 0 0 0 0 4 5 5 5 5
0 0 0 1 2 16 83 46 95 68 5 5 4 2 5 5 63 98 98 88 41 3 4 4 4 5 5 1 0 0 5 7
0 0 5 5 5 8 0 3 5 5 5 2 1 1 5 5 7 31 90 37 6 5 5 0 0 0 4 2 4 3 43 69
0 0 0 0 0 0 5 5 5 0 5 5 46 99 95 100 100 67 43 45 88 64 41 96 96 100 100 100 99 100 100 100
0 0 0 0 0 0 1 0 0 0 2 0 5 68 89 100 100 100 100 100 100 89 97 44 14 5 5 5 5 18 7 98
0 0 1 5 2 4 5 5 92 88 82 61 12 5 5 6 5 35 100 78 13 7 31 5 5 4 1 2 5 62 94 100
5 3 0 0 4 5 5 43 100 100 100 60 97 97 93 68 83 89 31 5 5 5 5 1 17 100 79 93 86 35 5 5
5 5 2 2 5 16 10 5 48 94 66 100 100 94 60 99 94 52 5 5 5 5 1 3 81 98 29 46 35 52 67 61
5 5 5 5 3 5 5 5 6 46 22 5 7 5 5 5 18 33 5 5 5 1 0 1 5 5 5 51 99 5 70 100
5 8 5 5 5 5 4 5 5 5 14 6 9 5 5 5 5 4 0 0 0 2 2 0 5 45 62 16 5 4 0 3
97 5 5 5 50 50 5 5 11 19 12 7 5 5 7 4 0 0 0 0 0 0 0 1 4 5 5 5 5 5 5 38
5 18 83 45 8 5 5 5 5 5 26 93 71 73 64 11 5 4 10 30 2 2 0 0 0 4 5 35 70 83 54 87
5 6 5 5 13 5 9 31 81 69 15 22 34 63 39 7 95 39 100 79 91 84 20 0 4 5 13 54 20 5 5 0
4 5 5 6 39 34 6 5 5 2 5 6 5 5 19 51 81 100 92 100 99 100 34 4 15 5 5 5 2 4 4 5
6 16 7 5 5 5 5 5 5 5 20 14 4 5 100 82 30 100 100 100 100 97 28 58 5 4 5 30 12 5 4 5
9 5 5 5 5 5 5 5 5 51 13 5 1 5 66 73 47 100 100 100 58 85 72 100 6 54 99 95 8 5 5 5
5 5 5 5 5 5 19 71 93 6 5 0 0 0 0 1 5 100 100 100 100 93 84 83 61 92 19 2 15 32 13 60

GFSFLT1_prec_cloud_027.txt.gz
Cloud_Cover
100 86 15 8 46 49 78 100 100 100 100 100 87 35 6 5 5 5 5 5 5 60 96 100 80 38 15 0 0 0 0 3
4 0 0 1 5 9 61 98 27 52 92 98 69 5 5 5 5 60 72 98 98 98 79 57 56 27 4 0 0 0 0 0
82 6 30 56 67 100 9 98 100 98 74 6 5 5 11 58 22 13 76 49 9 4 4 5 5 2 0 0 0 0 0 5
10 41 100 100 92 9 17 14 4 1 2 5 49 34 40 12 5 5 5 5 5 0 0 0 0 0 0 0 1 0 11 0
59 98 68 89 48 5 5 5 5 4 5 85 99 18 9 5 5 5 5 5 5 3 0 0 0 0 0 0 0 0 4 6
55 71 67 53 66 12 8 5 3 5 12 89 100 100 100 100 88 91 100 100 98 32 14 9 5 0 0 0 0 5 5 4
99 100 97 100 100 93 27 21 8 20 91 100 100 100 100 100 100 100 100 100 97 47 4 0 0 0 0 0 0 0 0 0
100 92 100 100 100 77 100 46 30 100 100 94 72 35 33 98 100 100 42 2 2 0 1 0 0 0 0 0 0 0 0 0
100 100 92 59 27 21 5 8 92 71 11 69 94 88 83 57 9 5 5 5 0 0 1 5 5 5 5 36 4 0 0 0
0 0 0 2 5 6 24 7 5 5 12 5 4 3 4 5 5 5 5 2 0 1 5 44 59 100 100 99 67 6 4 0
4 5 5 5 15 75 34 5 5 5 5 5 5 5 5 5 5 2 2 4 5 24 100 92 95 62 100 87 91 97 82 7
27 26 86 53 94 71 35 5 16 7 5 5 5 5 5 3 5 5 5 5 46 71 48 99 100 98 100 97 100 100 100 100
85 95 91 87 88 91 75 99 37 5 5 4 3 5 5 5 5 5 87 68 88 100 100 85 100 100 100 100 100 100 100 92
5 57 100 100 93 94 68 97 5 5 5 5 5 1 1 11 23 5 0 0 0 0 3 68 89 100 100 91 72 98 74 15
19 88 91 93 100 97 57 5 5 5 5 5 1 5 5 7 0 0 0 0 0 7 76 60 100 94 100 100 100 98 38 88
93 68 98 93 20 5 5 5 5 5 5 1 0 5 5 0 0 0 0 3 46 96 100 100 100 99 100 100 79 14 5 5
80 54 62 37 5 5 5 5 5 5 5 5 5 5 0 0 0 0 5 70 94 100 100 87 5 38 95 50 5 5 5 79
86 14 5 5 5 5 5 5 5 5 14 7 5 5 2 0 0 18 98 88 17 68 11 5 35 86 5 9 8 5 8 22
43 12 24 5 10 5 5 18 34 38 8 5 5 5 0 5 6 32 100 100 37 5 44 90 68 6 6 5 18 5 5 5

GFSFLT1_prec_cloud_030.txt.gz
Cloud_Cover
100 100 88 100 100 81 78 88 100 100 100 100 100 100 100 100 58 71 56 40 100 100 29 6 5 5 5 5 4 5 1 0
76 86 90 6 49 86 99 100 100 100 100 100 100 93 86 5 5 5 7 75 30 5 4 0 0 0 0 0 0 0 0 0
5 17 9 8 65 91 100 75 59 95 87 18 4 5 5 5 4 2 1 0 0 0 0 0 0 0 0 0 0 0 0 6
25 43 93 100 76 48 69 97 100 35 5 5 5 0 0 1 2 2 0 0 0 1 0 0 0 0 0 0 0 0 0 0
5 5 78 26 33 100 100 71 5 28 4 1 4 5 5 5 5 5 2 3 5 3 4 4 0 0 0 0 0 0 0 0
5 56 6 33 100 90 56 57 65 55 98 18 7 5 5 5 0 5 5 6 5 10 7 5 2 5 5 0 1 0 0 0
20 29 58 95 100 100 100 100 96 69 88 68 95 83 5 5 38 78 76 83 97 25 5 5 5 3 1 4 2 4 2 0
10 64 86 100 100 67 96 100 100 97 39 5 5 5 15 65 74 66 42 35 37 5 5 5 5 5 5 5 14 5 5 5
80 78 93 5 5 69 32 56 38 5 5 5 46 63 5 5 5 5 5 5 5 5 5 4 5 5 10 15 8 70 86 5
27 2 0 5 5 5 6 61 88 95 5 5 5 5 5 5 5 5 23 43 5 5 5 6 84 100 98 89 100 99 93 97
0 4 5 5 5 9 95 87 20 5 5 5 5 5 5 6 30 44 13 5 5 5 58 38 5 34 24 98 89 100 100 100
4 5 7 10 7 51 23 5 5 93 99 5 5 5 5 5 5 4 5 5 2 0 0 1 5 2 100 98 74 94 97 93
8 76 98 97 96 19 22 84 100 74 5 5 5 5 5 5 5 2 0 0 0 0 1 40 88 16 82 100 100 100 100 100
5 19 100 100 90 58 92 100 57 84 99 5 5 5 5 1 0 2 5 5 1 0 15 100 100 99 72 100 100 98 61 62
5 84 97 75 69 100 77 90 99 93 5 5 5 5 4 5 5 5 5 0 2 5 43 90 82 96 90 78 37 19 5 5
5 27 23 74 100 63 14 6 5 5 5 5 7 14 18 31 7 5 5 5 81 70 70 78 76 12 5 5 13 12 5 5
15 85 100 98 100 96 5 5 8 24 35 58 87 99 100 76 77 5 5 8 77 35 24 5 5 5 7 5 10 5 5 5
100 100 100 100 100 50 35 76 97 95 83 98 100 100 100 43 5 24 5 57 45 25 5 5 5 44 5 5 7 5 5 5
100 96 94 100 100 90 100 100 100 97 100 100 100 100 80 5 4 25 20 37 93 46 10 5 51 6 5 5 5 5 5 5

GFSFLT1_prec_cloud_033.txt.gz
Cloud_Cover
78 83 99 100 81 100 100 90 100 100 100 100 100 100 100 100 100 100 100 80 37 16 3 5 5 2 0 0 0 0 0 0
73 49 77 100 96 27 59 100 94 100 100 100 100 100 100 100 100 80 36 9 0 0 0 0 0 0 0 0 0 1 2 0
69 23 59 43 49 41 100 99 80 100 97 44 61 62 36 5 0 0 0 0 0 0 0 0 0 0 0 0 0 0 0 0
30 36 4 50 46 28 13 9 6 5 5 5 5 5 5 66 56 6 5 0 0 1 0 3 11 37 33 5 5 2 0 0
4 5 5 13 55 5 5 9 5 31 69 67 5 42 56 8 11 4 2 5 5 23 79 96 66 7 5 0 0 0 0 0
3 6 9 66 14 12 34 74 38 23 92 63 91 96 5 2 0 3 5 8 87 84 5 2 0 0 0 0 2 5 5 13
3 5 52 38 50 54 80 70 97 82 11 34 15 5 4 5 4 3 5 9 1 1 0 0 0 2 4 12 73 86 89 25
5 92 60 70 91 77 5 25 32 58 64 7 7 5 5 5 3 0 2 1 0 3 5 12 5 5 6 47 5 98 98 5
22 77 100 100 10 5 5 5 6 10 97 78 5 48 67 5 0 0 2 5 5 5 5 5 5 6 6 87 28 10 72 22
12 61 5 0 0 4 5 5 19 99 100 69 65 91 63 5 5 5 5 9 51 6 5 5 1 0 0 5 5 7 57 98
5 3 0 2 5 5 5 61 100 100 80 92 100 76 6 12 10 50 26 17 15 5 4 3 4 1 9 87 85 72 94 26
0 0 0 5 5 8 41 100 95 63 85 89 17 73 63 7 5 5 5 5 5 4 5 5 2 5 47 98 6 5 55 95
0 2 5 7 13 74 100 63 99 97 85 7 15 5 5 5 5 5 5 5 5 5 5 5 5 32 90 97 82 100 94 82
5 5 90 77 86 100 78 70 100 98 5 8 5 5 21 5 10 76 7 10 11 5 33 84 87 64 89 89 89 34 81 9
5 11 74 100 100 93 93 100 79 67 20 5 5 5 44 99 100 96 99 96 14 91 69 84 75 86 42 5 5 5 5 5
8 5 91 100 92 86 100 57 20 5 5 6 24 99 98 100 100 100 83 7 8 39 98 73 11 5 5 5 5 5 5 5
5 77 100 88 100 100 100 100 60 59 19 41 99 100 100 100 100 53 55 16 10 44 30 5 5 5 5 5 5 5 5 0
64 93 100 88 100 99 96 80 95 100 90 100 100 100 100 100 22 50 29 37 11 47 30 40 5 5 5 5 5 5 5 4
96 100 100 100 76 86 90 90 100 100 100 100 100 100 100 78 34 5 5 8 82 97 96 78 10 5 5 5 5 5 5 5

GFSFLT1_prec_cloud_036.txt.gz
Cloud_Cover
53 50 40 46 91 92 87 81 100 100 100 100 100 100 100 100 100 100 100 100 100 100 100 100 72 7 0 0 0 0 0 0
100 99 77 53 47 99 68 94 100 100 100 100 100 100 100 100 100 100 100 100 100 100 100 5 0 0 0 0 0 1 4 1
79 77 49 40 80 82 59 50 100 100 100 100 82 100 90 100 100 100 91 56 75 42 2 0 0 0 3 5 5 5 4 3
80 56 45 93 94 51 29 93 29 58 48 97 100 26 84 92 94 93 76 14 1 3 0 0 5 6 36 5 5 1 3 0
0 2 7 9 71 61 42 5 37 99 68 12 5 5 5 5 5 5 4 5 1 0 0 5 5 5 5 2 3 5 5 5
3 5 5 70 5 28 5 63 26 6 72 42 38 5 5 5 5 6 19 10 4 0 0 0 2 5 5 0 3 16 42 58
5 5 5 5 5 5 10 8 5 14 5 5 5 11 6 5 11 98 85 32 5 5 5 3 2 5 5 12 47 24 58 82
4 5 4 5 5 5 5 5 5 5 5 5 10 31 9 73 99 93 21 5 5 5 5 5 5 5 40 6 86 60 48 61
4 0 5 5 5 5 5 0 5 5 7 37 98 97 77 79 25 5 5 5 5 5 5 5 5 5 5 5 34 44 86 32
0 5 5 6 5 3 2 5 5 5 12 67 98 91 59 67 6 5 13 7 5 5 5 5 5 5 5 6 40 13 86 94
4 5 20 16 0 2 5 5 5 29 100 91 45 34 92 70 73 88 27 5 5 5 5 44 12 5 6 71 16 27 100 83
5 5 5 5 5 5 48 65 81 88 100 100 86 90 76 75 32 5 5 5 5 5 8 5 5 9 79 80 35 83 100 90
5 5 5 5 5 20 23 86 62 100 100 100 94 20 9 5 5 5 5 5 38 87 17 5 26 100 100 84 43 98 95 99
5 5 5 5 14 89 45 72 100 60 91 94 28 5 5 5 5 5 18 87 99 7 6 80 100 99 95 91 100 100 93 85
5 5 5 5 80 35 56 100 65 70 81 13 13 19 5 5 49 82 100 98 26 24 35 42 94 94 95 69 33 95 93 73
5 5 5 5 40 15 79 44 92 64 85 53 28 16 36 87 100 100 100 55 26 14 44 70 54 37 11 20 42 33 67 5
5 5 5 5 13 65 80 99 22 100 63 98 60 93 100 100 100 95 86 19 64 83 94 97 95 92 5 5 3 5 5 5
5 5 5 15 77 100 100 85 100 81 100 89 99 100 100 100 98 52 46 10 77 100 100 97 100 100 5 5 5 5 5 5
12 6 32 93 100 100 100 100 94 100 99 99 96 100 100 94 99 86 18 77 70 100 100 100 88 98 5 5 5 5 5 52

GFSFLT1_prec_cloud_039.txt.gz
Cloud_Cover
100 100 100 100 100 100 100 87 86 100 100 99 100 100 100 100 100 100 100 100 100 100 100 100 100 100 100 100 100 21 2 25
100 100 77 73 40 45 100 100 64 71 100 100 100 100 100 100 100 100 100 99 76 100 72 94 100 100 84 98 4 0 1 0
88 87 62 70 81 82 82 99 100 72 15 48 100 100 47 67 62 86 100 94 74 70 85 5 1 0 0 0 4 5 5 5
26 23 20 68 86 92 100 59 17 31 5 5 58 97 87 49 42 91 100 65 8 5 5 5 4 0 1 5 5 5 5 5
12 20 75 50 100 99 8 5 20 11 8 5 12 54 77 23 14 37 48 5 5 26 5 4 2 5 5 5 7 4 5 50
30 45 84 66 5 5 16 34 38 5 5 5 5 23 42 50 67 25 6 11 11 5 5 5 2 5 5 5 2 98 90 100
2 17 26 4 5 6 14 12 30 4 4 5 13 47 76 98 57 49 64 65 25 5 5 5 5 5 5 5 5 5 5 69
0 0 0 1 5 4 5 5 15 14 29 54 34 14 77 77 80 84 81 73 68 29 5 4 5 5 5 5 5 27 5 98
0 0 0 0 0 2 5 16 51 91 61 31 5 5 44 100 23 82 81 87 21 5 5 5 5 5 5 5 5 52 91 45
0 0 2 4 0 6 6 88 100 74 7 5 22 16 100 84 39 28 85 15 5 5 5 5 5 5 5 5 5 97 6 48
5 5 1 0 2 35 38 34 50 5 5 6 48 100 100 82 56 90 5 14 5 5 5 5 5 5 5 5 21 70 56 8
5 5 5 6 44 53 49 9 5 5 5 25 86 100 35 9 77 5 10 5 5 5 5 5 5 5 5 5 81 74 94 100
9 5 19 41 37 51 21 8 76 24 55 100 100 98 18 6 5 5 5 5 5 5 5 5 5 5 6 33 91 98 95 100
5 16 22 14 5 5 5 16 6 67 62 100 90 46 10 12 9 53 22 5 5 5 5 5 46 88 97 99 64 55 93 100
5 39 73 70 5 16 31 87 13 96 98 100 59 15 55 6 88 34 5 5 5 42 28 64 73 97 100 100 100 96 97 100
48 100 100 7 5 50 36 6 80 77 100 94 84 78 79 99 78 60 65 50 67 89 100 90 100 100 98 14 16 6 6 7
10 100 7 4 1 5 51 79 94 66 96 97 83 93 100 83 94 96 81 99 100 100 100 100 100 97 78 5 5 5 5 5
39 97 5 5 5 34 50 96 51 100 100 99 100 100 94 100 100 92 100 100 100 100 100 100 100 100 5 5 5 5 5 53
96 5 5 16 42 32 79 82 100 100 100 100 96 100 100 100 100 100 100 100 100 100 100 100 100 100 5 5 5 4 42 95

GFSFLT1_prec_cloud_042.txt.gz
Cloud_Cover
100 100 81 98 100 98 63 85 97 86 95 87 79 89 99 88 81 100 100 100 100 100 100 100 100 100 100 100 100 100 54 10
94 100 100 100 100 100 100 100 100 100 100 30 5 5 5 5 100 82 93 100 100 100 100 100 100 80 32 0 0 0 0 0
100 100 99 100 100 84 91 86 82 7 5 16 5 5 3 2 5 7 89 100 100 100 49 6 5 5 3 0 0 0 0 1
100 100 100 100 80 98 16 27 32 14 57 5 4 1 3 2 5 5 5 27 6 5 5 5 5 5 4 0 0 3 4 3
9 65 49 96 44 89 10 66 5 14 6 4 3 5 5 5 5 28 5 5 5 5 5 5 5 3 0 0 0 0 0 4
64 26 98 100 100 5 46 4 39 5 5 0 4 42 100 100 98 60 98 98 76 6 5 5 5 5 5 5 5 5 5 5
94 97 100 80 100 6 20 0 100 12 2 3 0 5 68 50 15 33 100 99 27 10 5 5 3 2 0 0 0 0 1 1
25 95 67 55 17 8 100 64 100 7 5 2 0 2 8 7 54 64 93 32 5 26 5 3 4 5 5 0 0 0 5 5
10 0 40 83 62 18 2 3 38 2 5 30 33 5 5 68 100 100 100 53 5 5 5 5 5 5 5 0 0 0 1 42
11 9 50 0 0 0 0 0 0 5 84 98 20 5 5 49 74 83 100 95 5 5 5 5 5 5 5 5 5 5 5 33
0 0 0 0 0 0 0 41 39 59 14 4 5 5 68 100 100 100 92 69 22 11 5 22 48 11 5 5 5 5 7 9
0 0 0 0 1 37 5 56 100 59 5 5 30 64 100 100 100 100 100 45 15 5 79 100 42 9 6 57 38 5 44 14
0 0 0 3 89 100 99 100 100 67 5 5 66 99 100 100 100 100 48 18 62 100 100 98 48 48 99 100 78 5 23 79
4 46 53 76 94 100 100 100 100 44 5 84 100 100 100 100 100 40 34 100 100 100 97 97 99 84 54 90 6 70 100 20
6 98 100 100 100 100 100 100 94 17 67 100 100 100 100 91 88 96 99 99 100 91 95 100 100 100 100 87 92 73 100 44
5 86 62 100 99 100 100 83 5 15 100 100 100 100 100 100 99 100 100 100 100 100 100 100 100 100 100 100 100 64 22 78
5 5 5 54 100 100 57 30 10 68 100 100 100 100 100 100 100 100 100 100 100 100 100 100 100 100 100 70 10 8 5 0
5 5 5 14 100 97 21 56 44 78 99 100 100 100 100 100 100 100 100 100 100 100 100 100 100 100 100 100 99 72 96 0
5 5 5 83 99 100 99 81 79 86 100 100 100 100 100 100 100 100 100 100 100 100 100 100 100 100 100 100 100 37 5 0

GFSFLT1_prec_cloud_045.txt.gz
Cloud_Cover
99 100 100 92 94 100 100 94 95 76 76 82 88 75 97 75 53 48 14 17 8 73 23 5 4 3 12 93 100 90 1 0
100 100 100 100 100 90 77 63 100 100 100 100 100 100 100 100 100 74 5 5 5 2 4 3 0 0 0 2 2 0 0 0
91 100 100 94 93 100 100 100 100 100 100 99 7 5 5 5 5 4 2 5 5 5 0 1 2 2 5 5 0 0 0 0
98 72 100 100 100 100 100 100 100 82 53 5 5 6 2 0 0 1 3 5 2 1 5 46 10 5 5 1 0 0 0 0
74 99 43 92 95 32 24 88 51 17 5 3 5 0 0 0 0 0 0 1 5 5 5 4 3 2 0 0 0 0 0 1
98 79 76 74 18 5 5 5 5 1 28 2 5 0 0 0 0 0 5 4 38 52 5 2 0 2 0 4 3 0 0 1
54 13 5 24 5 4 1 0 0 0 0 5 1 0 0 0 11 91 100 100 72 5 9 19 5 1 3 0 2 4 5 5
5 5 4 0 2 16 1 0 0 0 18 5 5 0 6 60 65 100 100 73 41 98 100 82 30 5 4 5 5 5 5 3
0 0 0 0 0 15 0 0 1 95 46 15 5 0 3 6 23 99 100 99 94 96 100 100 100 5 5 5 5 5 13 29
0 0 0 0 0 0 11 100 100 45 7 5 5 5 5 77 96 86 99 88 92 100 100 100 54 5 10 96 92 97 67 5
0 0 0 0 0 0 47 100 100 16 3 5 6 24 29 88 60 86 100 100 100 89 100 70 16 22 74 56 40 12 25 93
0 0 0 0 0 0 0 14 1 2 17 5 24 62 92 100 100 93 100 97 100 100 85 6 75 100 98 99 85 75 100 100
0 0 0 0 0 0 0 0 72 100 100 100 100 100 100 100 100 100 100 100 96 68 78 69 100 91 91 100 100 95 100 100
0 0 1 4 2 1 86 100 100 100 100 100 100 100 100 100 100 99 100 81 88 89 77 100 91 100 76 100 93 97 100 100
0 2 5 5 43 100 100 86 100 100 100 100 100 100 100 100 100 98 99 74 96 68 100 76 96 100 100 100 100 100 100 100
0 4 5 4 24 9 8 85 99 100 100 100 100 100 100 100 94 100 100 100 91 100 100 98 100 100 100 100 100 99 100 98
4 1 5 5 14 5 6 48 100 100 100 100 100 100 100 92 100 100 100 100 100 100 100 100 100 100 100 100 100 100 100 100
1 1 1 4 5 67 5 97 100 100 100 100 99 80 78 100 100 100 100 100 100 100 100 100 100 100 100 100 100 100 100 100
7 5 5 5 5 5 73 78 81 100 100 100 86 97 100 100 100 100 100 100 100 100 100 100 100 100 100 100 100 100 100 100

GFSFLT1_prec_cloud_048.txt.gz
Cloud_Cover
100 99 100 100 100 100 100 100 100 100 100 100 100 100 100 100 100 96 97 96 94 98 100 100 83 94 80 15 0 0 0 0
100 100 100 100 91 15 94 98 69 100 100 100 53 43 22 57 96 100 100 100 89 19 18 16 5 2 2 5 0 0 0 0
100 100 45 90 100 100 100 70 98 100 91 94 85 100 100 100 95 86 24 69 5 17 1 0 0 4 5 0 0 0 0 0
100 100 100 87 77 89 62 61 100 100 100 100 100 100 100 79 47 5 4 2 5 5 1 2 5 39 4 0 5 5 3 0
100 100 100 100 99 98 100 100 100 100 100 100 87 63 15 7 1 0 0 2 5 1 0 0 5 24 49 24 43 58 1 2
95 100 100 100 96 88 84 61 87 98 5 8 7 5 6 5 0 0 5 5 2 0 1 5 5 8 5 34 100 100 75 0
46 18 83 93 55 40 22 26 38 31 4 0 2 18 17 4 0 3 5 4 34 18 97 87 21 37 99 97 56 5 3 2
76 5 5 38 58 29 7 19 1 0 0 1 4 6 5 4 1 5 15 12 93 100 100 100 100 65 44 50 5 5 5 5
5 5 4 1 22 18 7 5 3 0 0 2 3 1 5 5 5 62 98 100 100 100 33 98 100 94 90 61 58 5 5 5
5 5 5 0 1 1 9 5 1 0 0 0 5 56 76 53 74 100 100 100 100 100 100 100 100 100 92 83 55 9 100 10
4 0 0 0 6 23 9 2 0 1 15 100 100 100 100 100 100 100 100 100 90 100 100 99 68 92 99 84 60 17 71 55
0 0 0 0 0 0 0 0 0 36 100 100 100 100 99 100 100 100 100 100 100 100 97 14 76 35 99 100 45 9 79 64
0 0 0 0 0 0 0 0 0 5 97 94 62 100 100 100 100 100 100 100 100 100 97 41 76 64 100 100 80 90 100 100
0 0 0 0 0 1 3 8 5 24 100 100 96 92 99 100 46 100 100 100 98 100 46 82 96 97 100 100 100 98 100 100
0 0 0 5 5 9 49 65 67 100 36 100 96 37 100 12 98 100 68 11 73 100 86 8 92 100 100 100 100 100 100 100
2 5 5 5 5 5 5 26 7 33 24 66 95 93 100 85 98 100 96 73 98 99 96 100 98 90 99 100 100 100 100 100
1 5 5 5 1 5 9 22 18 55 83 100 100 100 94 100 100 100 67 100 99 100 100 100 100 100 100 100 100 100 100 100
4 1 5 5 5 4 11 7 5 77 100 100 100 98 100 100 100 87 100 100 100 98 100 100 100 100 100 100 100 100 100 100
4 2 4 4 4 5 5 10 20 99 84 64 60 82 84 99 100 100 100 100 98 100 100 100 100 100 100 100 100 100 100 88

GFSFLT1_prec_cloud_051.txt.gz
Cloud_Cover
100 100 100 100 100 98 94 100 100 100 100 100 100 100 100 100 100 100 100 100 100 100 87 97 96 96 97 50 63 70 3 0
100 92 100 100 100 100 100 100 95 100 100 100 100 100 100 100 100 100 100 100 100 100 99 100 65 16 64 76 3 0 2 0
100 100 66 100 100 100 100 100 100 100 100 100 100 97 99 100 100 100 100 100 85 100 95 98 69 47 2 0 0 5 5 16
100 100 100 100 100 100 37 35 83 100 100 90 64 92 66 88 100 100 72 52 72 34 9 3 0 3 0 5 5 3 5 90
100 100 11 100 100 100 100 100 93 87 100 100 100 100 78 46 78 73 29 21 8 0 5 5 5 23 29 5 79 52 5 10
85 69 15 17 66 71 67 92 49 50 14 56 69 11 5 69 94 89 4 0 1 5 5 11 60 7 27 29 24 90 96 13
94 76 41 5 7 19 32 37 14 68 53 25 39 5 5 78 87 5 2 2 5 91 99 23 94 98 100 58 56 20 70 82
5 14 5 9 96 58 56 96 57 100 100 100 47 11 4 71 34 5 5 5 63 95 36 73 100 100 100 98 95 85 77 26
25 20 0 12 77 52 100 89 92 99 100 100 81 5 9 90 25 5 98 72 98 44 100 100 87 100 100 88 100 23 5 6
5 5 5 18 44 32 100 74 100 100 82 5 5 2 3 4 79 81 75 51 100 97 100 100 100 100 100 100 100 67 57 82
62 22 4 8 14 42 78 76 77 30 4 5 1 0 14 71 100 100 90 100 34 100 100 100 100 100 100 96 100 6 92 90
2 0 0 0 12 33 45 53 5 4 5 1 5 36 20 100 78 55 98 36 100 100 100 100 100 100 100 100 100 87 70 66
0 0 0 0 5 1 1 0 0 0 5 18 5 51 5 40 100 98 79 100 95 100 100 100 100 100 91 100 100 100 100 65
0 0 0 5 0 0 5 3 5 2 5 7 58 60 37 99 100 100 96 56 87 100 100 97 99 100 99 89 95 99 94 90
0 0 5 2 3 4 5 24 5 5 30 69 70 84 70 94 100 100 100 88 96 100 100 98 100 74 87 34 15 16 83 92
0 3 0 4 5 5 6 44 71 92 48 37 91 99 100 100 100 100 100 95 98 100 100 100 95 94 97 29 66 100 100 100
0 0 2 5 3 5 16 58 12 53 96 99 80 100 100 100 100 100 100 100 100 100 100 100 100 99 100 98 100 74 16 5
0 0 0 5 15 88 83 88 100 100 81 76 100 100 100 100 100 100 100 100 100 100 100 96 98 100 100 68 5 5 5 5
4 5 5 5 22 53 30 24 33 6 70 92 100 100 100 100 100 100 100 100 100 100 94 100 100 68 0 5 5 5 5 5

GFSFLT1_prec_cloud_054.txt.gz
Cloud_Cover
100 90 61 5 15 23 18 45 59 81 98 100 100 100 100 100 100 100 99 92 77 100 100 100 100 100 100 83 43 44 98 93
100 100 100 100 100 100 100 100 70 77 100 100 100 92 100 60 97 100 100 100 100 100 90 79 99 89 100 40 96 75 5 0
100 100 100 100 100 100 100 100 100 69 39 75 73 100 100 100 100 100 100 100 100 98 100 83 14 18 46 30 6 2 1 0
100 100 100 100 100 100 24 64 85 61 58 72 53 97 100 100 99 87 92 100 87 76 85 56 13 7 5 5 5 5 5 4
100 100 100 100 100 64 73 100 100 100 100 100 93 68 66 94 94 100 95 100 87 71 60 8 4 5 5 5 5 5 45 51
70 51 100 100 100 100 98 80 100 100 100 100 96 99 92 57 98 95 94 84 69 4 0 5 5 77 98 10 56 88 6 80
100 97 87 100 97 100 75 74 100 100 99 100 100 100 100 98 40 71 67 97 38 5 5 88 70 75 76 90 74 100 89 99
95 98 45 9 5 26 9 27 44 71 100 100 100 100 100 100 48 87 100 98 8 32 98 47 47 56 87 100 84 99 100 100
23 10 5 5 5 12 71 28 6 46 100 100 100 100 100 100 100 58 82 81 84 72 84 96 100 100 100 100 100 100 100 100
69 5 5 5 5 6 5 12 5 38 100 100 100 100 100 100 26 5 5 86 99 97 68 64 99 100 100 100 100 100 100 100
12 5 4 5 5 5 5 9 16 64 100 100 100 100 92 62 64 69 91 99 100 67 51 100 100 99 100 100 100 100 100 14
5 5 4 2 1 26 19 64 60 56 65 73 100 58 19 100 100 100 100 100 100 92 97 100 100 100 100 100 100 87 75 55
0 0 2 27 22 46 65 100 100 67 98 100 100 100 100 100 100 100 100 100 100 100 100 100 100 100 100 100 98 14 58 86
0 0 3 9 19 45 71 87 99 73 100 100 100 100 100 100 100 100 100 94 100 100 100 79 98 99 99 80 78 65 55 84
0 0 0 0 1 23 16 35 93 98 98 87 76 92 92 100 100 100 100 90 100 100 83 100 100 100 91 88 93 96 97 24
0 0 0 0 1 6 45 69 79 31 33 53 92 100 66 100 100 100 100 100 100 100 30 98 100 100 100 100 100 76 6 5
0 1 0 0 3 34 34 5 5 5 14 58 68 100 100 100 100 100 100 100 100 100 100 100 100 100 98 82 44 5 5 5
5 5 7 0 0 0 0 2 5 22 93 100 100 100 100 100 100 100 100 99 100 100 100 98 95 100 98 11 5 5 5 12
0 5 5 5 5 3 5 15 86 100 100 100 100 100 100 100 100 100 100 100 100 100 100 99 96 100 21 11 10 5 58 100

GFSFLT1_prec_cloud_057.txt.gz
Cloud_Cover
100 100 58 13 0 0 4 25 8 94 100 100 100 100 100 100 100 100 100 100 100 100 100 100 99 100 100 7 30 7 5 35
100 100 100 100 1 5 5 73 99 100 100 100 100 100 100 96 96 100 100 100 100 100 100 100 34 67 66 42 6 6 62 30
94 100 38 10 9 97 48 51 14 30 30 19 13 23 83 84 95 89 98 95 77 71 100 99 15 35 49 28 48 56 9 5
97 100 100 100 100 100 100 99 11 5 16 26 51 34 19 41 55 100 47 62 50 100 99 79 40 39 21 18 19 8 5 10
74 61 100 100 100 100 100 100 95 76 83 100 100 100 100 100 70 91 86 87 100 100 100 74 14 6 5 24 80 77 80 49
100 100 100 100 100 100 100 98 67 70 59 31 93 100 100 100 100 100 100 98 76 99 53 49 5 6 81 12 64 100 100 100
77 79 96 100 95 56 86 98 96 100 100 85 86 100 98 100 97 100 100 90 68 95 6 10 5 5 34 86 92 100 100 100
90 99 96 100 100 100 92 66 26 29 38 64 99 100 100 100 100 100 100 100 99 83 42 87 96 84 91 85 88 100 100 100
47 48 97 43 59 12 9 24 90 100 58 95 100 100 100 100 100 100 100 100 95 9 100 97 95 98 46 98 100 100 100 100
54 75 37 5 29 17 5 5 36 32 57 77 98 100 100 100 100 100 100 96 85 100 100 100 100 75 100 92 98 100 100 100
88 49 5 5 5 5 5 5 5 14 55 83 99 100 100 100 100 100 100 13 80 97 100 98 96 100 100 100 100 100 100 100
100 58 5 2 67 70 3 0 0 16 63 76 97 100 100 100 100 100 96 99 100 100 100 100 100 100 100 100 100 100 100 99
96 27 5 5 42 8 1 7 19 44 96 100 100 100 100 100 100 100 100 100 100 100 100 100 100 100 100 100 100 99 100 100
69 6 5 1 3 12 51 100 100 100 100 100 100 100 100 100 100 100 100 100 100 100 100 100 100 100 100 100 100 100 100 100
3 0 5 4 14 58 95 100 100 100 100 100 100 100 100 100 100 100 96 89 100 100 100 100 100 100 100 100 100 97 100 84
0 0 0 5 4 30 68 100 100 100 100 100 100 100 100 100 100 100 84 79 100 100 100 100 100 100 97 100 99 100 100 78
5 2 2 5 14 42 46 38 34 63 74 100 100 100 100 84 99 50 100 100 100 100 100 100 100 100 100 100 100 63 5 5
2 2 17 35 39 24 54 59 41 27 29 46 53 83 100 87 92 100 100 100 100 100 100 100 100 100 93 100 96 12 6 51
1 0 4 14 20 18 21 18 22 50 98 92 99 92 100 100 100 100 100 100 100 100 100 100 100 100 100 98 89 42 39 27

GFSFLT1_prec_cloud_060.txt.gz
Cloud_Cover
77 100 100 97 63 100 99 100 100 100 100 100 100 100 100 100 100 100 100 100 100 100 100 100 100 100 97 98 78 99 99 28
42 100 100 100 100 99 42 100 100 100 100 100 100 100 100 100 100 100 100 100 100 100 100 100 100 100 100 56 5 30 93 26
48 99 100 100 29 5 4 47 95 99 100 100 100 100 100 100 100 100 100 100 100 100 100 98 100 99 14 72 24 5 11 6
9 78 100 100 100 28 56 88 88 100 100 100 100 100 100 100 100 100 100 100 100 100 77 88 100 100 64 12 5 5 5 5
78 90 96 100 100 100 99 99 64 89 100 79 97 86 100 100 69 89 97 100 100 92 84 100 100 100 66 5 29 8 45 6
100 100 94 69 91 100 100 89 69 31 7 46 30 5 1 0 54 85 92 100 100 100 100 92 100 100 75 5 5 10 28 100
100 100 93 91 90 31 16 16 69 88 34 28 9 24 38 59 70 100 100 100 100 100 100 100 100 100 7 50 16 90 100 99
100 100 100 100 100 100 94 98 94 27 24 18 52 98 96 100 100 100 100 100 100 100 100 100 100 100 80 14 99 100 100 70
100 100 100 100 100 100 76 10 72 62 52 82 94 88 100 100 100 100 100 100 92 100 100 100 100 100 80 100 100 100 99 99
11 36 6 45 79 96 94 97 100 96 100 93 92 79 100 100 100 100 100 100 100 100 100 100 92 100 100 100 100 100 100 100
82 50 58 5 5 5 14 84 74 65 34 79 100 100 100 100 100 100 100 100 100 100 100 99 97 100 100 100 100 100 100 100
100 100 100 98 6 5 5 3 3 5 2 53 100 100 100 100 100 100 100 100 100 100 100 100 100 100 100 100 100 100 100 100
100 100 97 11 5 0 0 0 0 0 7 60 100 100 100 100 100 100 100 100 100 100 100 100 100 100 100 100 100 100 100 100
69 71 63 15 32 12 77 28 4 6 59 100 100 100 100 100 100 100 100 100 100 100 100 100 100 100 100 100 100 80 100 100
100 100 100 84 65 18 2 42 100 100 100 100 100 100 100 100 100 100 100 100 100 100 100 100 100 100 100 100 100 100 96 88
100 42 62 11 1 31 93 100 100 100 100 100 100 100 100 100 100 100 100 100 100 100 100 100 100 100 100 100 100 100 98 100
100 100 5 0 24 57 79 100 100 100 100 100 100 100 100 100 100 100 100 100 100 100 100 100 100 100 100 100 100 100 100 100
100 32 5 2 19 48 64 92 96 94 100 99 97 94 91 97 74 41 96 92 100 100 100 100 100 100 100 92 42 96 88 72
28 36 5 11 7 8 21 28 32 13 11 26 30 28 24 66 80 45 100 100 100 100 100 100 99 62 20 28 26 5 5 5

GFSFLT1_prec_cloud_063.txt.gz
Cloud_Cover
5 21 62 86 83 71 63 96 96 98 98 100 100 100 100 100 100 100 100 100 100 100 100 100 100 100 100 100 100 100 98 95
17 88 100 100 100 100 100 100 97 100 100 100 100 100 100 100 100 100 100 100 100 100 100 100 100 100 100 100 100 100 100 96
7 99 100 100 100 94 100 100 31 61 100 100 100 100 98 100 100 100 100 100 100 100 100 100 100 100 100 100 62 100 100 96
81 92 100 100 99 91 43 96 34 87 93 35 38 100 100 100 100 100 100 100 100 100 100 100 100 100 98 100 100 100 79 74
29 100 68 100 100 100 100 100 100 96 100 100 98 80 78 45 99 93 100 100 100 100 100 100 100 78 100 98 100 99 18 40
98 36 7 26 100 100 100 100 79 100 100 100 26 8 5 38 47 56 95 100 100 100 100 100 100 100 98 100 100 100 100 96
100 100 100 98 40 81 79 38 11 14 9 6 5 55 5 5 5 62 100 100 100 100 99 100 100 100 100 100 100 100 100 100
100 98 100 100 99 92 62 35 35 56 57 18 18 26 48 46 58 98 100 100 100 100 100 100 100 98 100 100 100 100 91 100
100 94 75 67 98 100 80 96 100 80 71 23 54 60 32 32 48 100 100 100 100 100 100 100 100 100 100 100 100 100 100 99
56 96 99 100 99 91 25 30 95 96 94 99 100 100 93 91 68 100 100 100 100 100 100 100 100 100 100 100 100 100 100 100
5 35 71 51 16 15 21 52 78 90 83 90 86 99 100 100 100 100 100 100 100 100 100 100 100 100 100 100 100 100 100 100
35 92 98 13 7 66 43 27 84 91 36 89 100 94 97 100 100 100 100 100 100 100 100 100 100 100 100 100 100 100 100 100
80 6 65 92 50 6 16 55 66 55 94 95 100 98 100 100 100 100 100 100 100 100 100 100 100 100 100 100 100 100 100 100
8 5 5 5 10 48 76 5 18 29 43 86 80 100 100 100 100 100 100 100 100 100 100 100 100 100 100 100 100 100 100 100
36 50 11 28 7 32 17 40 51 71 82 94 100 100 100 100 100 100 100 100 100 100 100 100 100 100 100 100 100 100 100 100
98 97 94 87 80 59 79 100 100 100 100 100 100 100 100 100 100 100 100 100 100 100 100 100 100 100 100 100 100 100 100 100
100 100 100 100 74 96 100 100 100 100 100 100 100 100 100 100 100 100 100 100 100 100 100 100 100 100 100 100 100 100 100 77
84 100 100 64 98 100 100 98 100 100 100 100 100 100 100 100 100 100 95 68 89 100 100 100 100 89 95 94 44 37 28 56
84 100 100 100 100 83 79 81 79 75 74 79 97 82 56 51 61 57 48 80 100 100 80 88 75 64 76 59 94 100 98 44

GFSFLT1_prec_cloud_066.txt.gz
Cloud_Cover
100 100 56 15 54 100 100 100 100 100 100 100 100 100 100 100 99 100 100 100 100 100 100 100 100 100 100 100 100 100 100 100
100 76 40 100 100 100 100 100 100 100 100 100 100 100 100 100 100 100 100 100 100 100 100 100 100 100 100 100 100 100 100 100
79 100 34 12 32 100 96 89 86 82 100 100 100 100 100 100 100 100 100 100 100 100 100 100 100 100 100 100 100 100 100 100
27 1 9 75 100 98 5 17 83 96 50 81 100 100 100 100 100 100 100 100 100 100 100 100 100 100 100 100 100 100 100 100
48 5 97 64 79 100 100 55 2 0 82 90 1 14 15 30 6 33 99 100 100 100 100 100 100 100 100 100 100 100 99 100
100 100 14 99 100 100 49 85 92 90 68 98 93 9 7 9 4 4 16 59 16 84 91 98 100 100 96 97 100 100 100 100
100 100 95 53 98 100 100 100 100 100 96 5 52 83 14 5 7 17 16 69 87 100 100 100 100 100 100 100 100 100 100 100
100 86 95 95 60 85 80 100 100 100 100 81 49 45 6 6 20 16 49 97 100 100 100 100 100 100 100 100 100 100 100 100
68 100 100 53 49 44 27 98 99 85 17 47 97 100 70 6 5 4 5 5 67 100 100 100 100 100 100 100 100 100 100 100
5 5 85 98 100 100 80 56 7 5 5 40 11 92 7 99 46 7 10 71 8 83 100 100 100 98 100 100 100 100 100 100
5 5 5 5 5 21 26 5 5 5 5 5 5 5 5 5 10 38 94 100 98 89 100 100 100 100 100 100 100 100 100 100
38 42 50 7 41 10 5 39 5 5 5 6 5 5 6 85 95 100 94 100 100 100 100 100 100 100 100 100 100 100 100 100
5 7 21 36 85 95 100 88 3 4 43 100 99 100 97 100 78 76 100 100 100 100 100 100 100 100 100 100 100 100 100 100
4 5 5 46 47 68 99 100 67 97 100 91 98 100 99 83 99 100 100 100 100 100 100 100 100 100 100 100 100 100 100 100
5 98 84 10 5 5 5 6 28 6 45 87 100 100 100 100 100 100 100 100 100 100 100 100 100 100 100 100 100 100 100 100
5 3 2 5 90 61 15 17 16 42 100 100 100 100 100 100 100 100 100 100 100 100 100 100 100 100 100 100 100 100 100 100
2 4 0 1 94 100 100 100 97 92 77 99 100 100 100 100 100 100 100 100 100 100 100 100 100 100 100 100 100 100 100 88
0 4 1 4 55 100 100 100 100 99 98 100 100 100 100 100 100 100 100 100 100 93 76 97 100 100 100 91 100 100 100 100
0 1 12 3 6 72 96 100 100 100 100 100 100 100 100 100 100 100 100 64 15 57 78 100 81 93 100 100 100 96 81 66

GFSFLT1_prec_cloud_069.txt.gz
Cloud_Cover
92 100 100 100 100 100 100 100 100 100 100 100 100 100 100 100 100 100 100 100 100 96 100 100 100 100 100 100 100 100 100 100
91 98 81 100 100 100 100 100 100 100 100 100 100 100 100 100 100 100 100 100 100 100 100 100 100 100 100 100 100 100 100 100
59 43 90 100 69 89 89 100 100 100 100 100 100 100 100 100 100 100 100 100 100 100 100 100 100 100 100 100 100 100 100 100
98 98 100 100 88 100 100 100 100 100 100 100 100 100 100 100 100 100 100 100 100 100 100 100 100 100 100 100 100 100 100 100
100 80 77 100 86 42 30 100 100 100 100 100 100 100 100 100 100 100 100 100 100 100 100 100 100 100 100 99 100 68 100 100
79 100 30 99 48 64 5 81 86 99 100 100 100 100 100 100 100 100 100 100 100 100 98 98 99 100 99 65 66 97 100 100
74 100 100 100 99 76 100 100 72 55 78 50 25 99 90 45 77 5 3 16 76 9 59 68 14 21 63 34 76 100 100 100
60 60 56 93 29 100 100 87 100 100 100 100 32 5 7 0 1 5 5 5 67 85 52 94 58 45 100 63 79 98 100 98
5 5 1 2 5 4 22 98 97 48 5 89 100 33 5 5 5 4 5 5 60 81 7 25 7 39 66 100 100 100 100 100
56 10 48 12 18 5 5 0 0 1 1 4 5 43 5 5 25 14 98 39 84 100 100 100 100 100 100 99 100 100 100 100
65 90 91 11 5 5 5 5 5 5 5 10 12 5 46 70 90 73 100 100 100 100 100 100 100 100 92 96 100 100 100 100
5 5 5 5 5 5 5 4 4 2 67 99 89 78 82 100 100 100 100 100 100 100 100 100 100 95 100 100 100 100 100 100
0 0 2 7 5 92 100 1 98 100 100 100 100 100 100 100 100 100 100 100 100 100 100 100 100 100 100 100 100 100 100 100
0 0 0 0 2 4 64 98 100 100 100 100 100 100 98 100 100 100 100 100 100 100 100 100 100 100 100 100 100 100 100 100
0 0 0 0 0 47 10 61 100 100 100 100 100 100 100 100 100 100 100 100 100 100 100 100 100 100 100 100 100 100 100 100
0 0 0 2 9 83 98 100 100 98 100 100 100 100 100 100 100 100 100 100 100 100 100 100 100 100 100 100 100 100 100 100
4 0 0 1 7 47 100 100 100 100 100 100 100 100 100 100 100 100 100 100 100 100 100 100 100 100 100 100 100 100 100 100
2 0 0 0 17 37 72 86 99 100 100 100 100 100 100 100 100 98 100 100 100 100 100 100 100 93 100 88 100 75 42 5
20 0 0 7 17 4 10 22 40 69 99 100 100 89 100 100 100 100 100 90 100 93 59 59 96 100 100 74 19 5 8 30

GFSFLT1_prec_cloud_072.txt.gz
Cloud_Cover
20 100 100 100 100 100 100 100 100 100 100 100 100 100 100 100 100 100 100 100 100 100 100 100 95 99 83 100 100 100 100 100
31 44 63 100 86 100 100 100 100 100 100 100 100 100 100 100 100 100 100 100 100 100 78 75 100 100 100 100 100 100 100 100
56 16 32 100 100 100 100 100 100 97 100 100 100 100 100 100 100 90 100 100 100 100 99 46 99 100 100 100 100 100 100 100
30 42 21 100 100 98 92 99 69 94 100 100 100 100 100 100 100 100 100 100 97 100 100 100 100 100 100 98 97 100 100 100
0 90 53 100 50 100 100 100 100 100 100 100 100 100 100 100 100 100 100 100 100 100 100 95 100 100 100 73 65 89 100 92
16 100 100 82 100 100 100 47 99 100 100 100 100 100 100 100 100 100 100 100 100 100 100 100 100 99 98 100 100 100 100 100
4 38 93 74 76 89 100 100 100 100 100 100 100 100 98 100 100 100 100 100 100 100 100 100 100 100 100 90 28 84 89 97
6 34 9 91 13 7 6 48 72 100 100 88 100 98 100 91 58 80 96 100 100 100 96 99 75 59 100 100 96 60 87 100
5 1 1 9 11 8 78 84 85 100 63 67 100 100 55 17 43 95 61 35 83 50 100 100 99 100 100 99 34 88 100 100
5 1 2 1 5 52 26 6 21 70 64 88 40 5 5 78 8 13 11 15 71 97 100 93 94 100 100 100 65 100 100 100
4 4 28 28 0 0 3 20 5 1 2 5 24 44 32 6 70 100 100 100 100 100 100 100 100 100 100 67 100 100 100 100
0 2 53 86 21 4 1 28 20 5 70 99 100 100 100 100 100 100 100 100 100 100 100 100 100 100 100 100 100 100 100 100
0 0 0 0 0 0 0 5 45 100 100 100 100 100 100 100 100 100 100 100 100 100 100 100 100 100 100 100 100 100 100 100
0 0 0 0 0 0 0 1 97 100 100 100 100 100 100 100 100 100 100 100 100 100 100 100 100 100 100 100 100 100 100 100
0 0 0 0 0 0 0 0 98 100 100 100 100 100 100 100 100 100 100 100 100 100 100 100 100 100 100 100 100 100 100 100
4 0 3 50 39 35 36 57 43 100 100 100 100 100 100 100 100 100 100 100 100 100 100 100 100 100 100 100 100 100 100 100
3 4 0 55 100 100 100 100 100 94 100 100 100 100 100 100 100 100 100 100 100 100 100 100 100 100 100 100 100 100 100 100
10 15 5 42 100 100 100 100 100 100 100 100 100 100 100 100 100 100 100 100 100 100 100 100 100 100 100 100 100 100 100 100
59 92 20 92 100 100 100 100 100 100 100 100 100 100 100 100 100 100 100 100 100 100 100 100 100 100 100 100 100 100 68 39

GFSFLT1_prec_cloud_075.txt.gz
Cloud_Cover
91 100 71 100 100 100 100 100 100 100 100 100 100 100 100 100 100 100 100 100 100 100 100 100 100 100 100 100 100 100 100 100
97 100 65 100 100 100 100 100 100 100 100 100 100 100 100 100 100 100 100 100 100 100 100 100 100 100 100 100 100 100 100 98
96 95 100 100 100 100 100 100 100 100 100 100 100 100 100 100 100 100 100 100 100 100 100 100 100 100 100 100 100 98 100 100
81 100 100 100 100 100 100 100 100 100 100 100 100 100 100 100 100 100 100 100 100 100 100 100 100 100 100 100 100 100 100 94
3 38 94 94 100 100 100 100 100 100 100 100 100 100 100 100 100 100 100 100 100 100 100 100 100 100 100 100 100 100 95 80
1 48 100 96 100 100 100 100 100 100 100 100 100 100 100 100 100 100 100 100 100 100 100 100 100 100 80 98 100 99 98 93
11 5 100 91 93 88 100 100 100 100 100 100 100 100 100 100 100 100 100 100 100 100 100 100 100 100 86 87 73 69 51 34
5 5 18 90 6 75 13 6 9 11 34 100 100 100 100 100 47 68 45 80 62 73 76 99 92 88 95 69 100 99 92 52
4 5 5 10 9 5 4 5 5 5 5 16 26 84 6 5 10 6 10 19 64 99 100 100 100 100 89 100 100 100 99 40
5 5 5 5 1 0 5 5 5 5 1 1 5 5 5 5 68 38 91 91 99 100 100 100 100 100 100 83 100 100 100 77
0 0 0 5 5 4 1 6 10 14 18 7 5 24 64 91 99 79 95 99 75 100 100 100 100 100 100 100 100 100 100 100
0 0 0 0 3 60 74 5 16 98 97 85 86 66 100 100 100 100 100 100 100 100 100 100 100 100 100 100 100 100 100 100
0 0 0 0 0 0 0 5 13 92 100 100 100 100 100 100 100 100 100 100 100 100 100 100 100 100 100 100 100 100 100 100
0 0 0 0 0 0 0 0 0 72 100 100 100 100 100 100 100 100 100 100 100 100 100 100 100 100 100 100 100 100 100 100
0 1 2 0 0 0 3 0 0 0 65 100 100 100 100 94 100 100 100 100 100 100 100 100 100 100 100 100 100 100 100 100
1 0 2 16 10 0 0 0 0 0 0 43 100 100 100 100 100 100 100 100 100 100 100 100 100 100 100 100 100 100 100 100
6 87 52 0 0 5 60 74 26 0 12 75 100 100 100 100 100 100 100 100 100 100 100 100 100 100 100 100 100 100 100 100
100 86 100 21 9 50 78 100 93 56 57 100 100 100 100 100 100 100 100 100 100 100 100 100 100 100 100 100 100 100 100 100
90 100 100 46 62 100 100 100 100 100 100 100 100 100 100 100 100 100 100 100 100 100 100 100 100 100 100 100 100 100 100 100

GFSFLT1_prec_cloud_078.txt.gz
Cloud_Cover
100 100 100 100 100 100 100 100 100 100 100 100 100 100 100 100 100 100 100 100 100 100 100 100 100 100 94 92 100 100 100 100
100 100 100 100 100 100 100 100 100 100 100 100 100 100 100 100 100 100 100 100 100 100 100 100 100 100 100 100 100 100 100 100
100 100 100 99 100 100 100 100 100 100 100 100 100 100 100 100 100 100 100 100 100 100 100 100 100 100 100 100 100 100 100 100
100 98 100 100 100 100 100 100 100 100 100 100 100 100 100 100 100 100 100 100 100 100 100 100 100 100 100 100 100 100 100 100
100 100 100 100 100 100 100 100 100 100 100 100 100 100 100 100 100 100 100 100 100 100 100 100 100 100 100 100 100 100 100 100
94 100 100 100 100 100 100 100 100 100 100 100 100 100 100 100 100 100 100 100 100 100 100 100 100 100 100 100 100 100 100 100
1 23 45 99 100 100 100 100 100 100 100 100 100 100 100 100 100 100 100 100 100 100 100 100 82 100 100 100 100 100 92 62
0 5 36 100 85 71 77 96 100 100 100 100 100 100 100 100 100 100 100 100 100 100 100 100 100 100 100 100 96 78 28 16
0 0 5 6 5 57 8 6 88 85 100 100 100 100 100 100 100 100 100 100 100 100 100 100 93 100 90 100 100 77 100 100
0 0 2 5 5 6 39 29 6 60 99 14 57 100 100 99 100 100 100 100 100 100 100 100 100 100 98 99 100 70 56 96
0 0 0 0 3 4 5 31 5 12 6 30 44 8 52 89 98 100 90 100 100 100 100 100 100 100 100 100 99 100 100 100
0 0 0 0 1 1 21 98 100 78 57 47 65 100 100 100 100 100 100 100 92 94 100 80 100 100 100 100 100 100 100 100
3 0 5 0 0 5 5 13 85 100 100 100 100 100 99 99 100 99 100 100 100 98 82 100 100 100 100 100 100 100 100 100
5 3 0 0 0 0 0 0 6 40 98 100 100 100 100 100 100 100 100 100 100 100 100 100 88 100 100 99 100 100 100 100
15 8 5 0 0 0 0 2 0 0 1 58 100 100 100 100 99 95 100 100 100 100 100 100 100 100 100 100 100 100 100 100
72 11 5 2 0 0 0 0 0 0 0 0 28 98 86 100 88 100 100 100 100 100 100 100 100 100 100 100 100 100 100 100
100 47 40 5 73 5 1 0 0 0 0 4 0 4 53 86 100 100 100 100 100 100 100 100 100 100 100 100 100 100 100 100
100 100 94 98 100 67 8 58 9 1 5 14 79 99 100 100 100 100 100 100 100 100 100 100 100 100 100 100 100 100 100 100
100 100 100 81 100 60 98 100 84 82 94 100 100 100 100 100 100 100 100 100 100 100 100 100 100 100 100 100 100 100 100 100

GFSFLT1_prec_cloud_081.txt.gz
Cloud_Cover
68 100 100 100 100 100 100 100 100 100 100 100 100 100 100 100 100 100 100 100 100 100 100 100 100 100 95 100 100 100 100 98
100 95 100 100 100 100 100 100 100 100 100 100 100 100 100 100 100 100 100 100 100 100 100 100 100 100 100 100 100 100 100 98
98 98 100 92 100 100 100 100 100 100 100 100 100 100 100 100 100 100 100 100 100 100 100 100 100 100 100 100 100 100 100 100
90 100 100 100 100 100 100 100 100 100 100 100 100 100 100 100 100 100 100 100 100 100 100 100 100 100 98 100 100 100 100 98
17 100 100 100 100 100 100 100 100 100 100 100 100 100 100 100 100 100 100 100 100 100 100 100 100 100 100 100 100 100 100 100
0 85 100 100 100 100 100 100 100 100 100 100 100 100 100 100 100 100 100 100 100 100 100 100 100 100 100 100 100 100 100 100
0 8 69 100 100 100 100 100 100 100 100 100 100 100 100 100 100 100 100 100 100 100 100 100 100 100 100 100 100 100 100 100
0 9 99 100 100 100 100 100 100 100 100 100 100 100 100 100 100 100 100 100 100 100 100 100 100 100 100 100 100 98 100 100
0 0 1 48 100 100 100 100 100 100 100 100 100 100 100 100 100 100 100 100 100 100 100 100 100 100 100 100 100 100 32 13
10 0 0 0 16 95 100 41 53 91 100 100 100 100 100 100 100 100 100 100 100 100 100 100 100 100 96 100 100 100 72 44
61 2 0 0 0 0 20 16 4 11 34 62 94 100 100 100 100 100 100 100 100 100 100 100 100 90 63 100 98 92 91 90
74 4 2 0 0 0 0 0 2 5 5 5 5 8 12 50 82 57 68 76 96 100 100 100 82 100 85 100 98 100 100 100
100 32 5 0 0 0 0 2 16 5 5 7 85 60 86 93 78 100 96 86 90 100 100 100 100 100 92 95 100 100 100 100
100 67 11 5 0 0 0 0 11 21 69 70 99 100 100 100 100 100 88 18 97 99 100 93 78 83 100 100 100 100 100 100
100 73 40 5 5 5 5 1 0 0 0 42 74 71 84 93 100 100 63 87 47 22 97 100 100 100 100 100 100 100 100 100
100 100 87 91 5 5 5 5 5 3 0 0 0 20 86 98 100 74 100 100 100 100 100 100 100 100 100 100 100 100 100 100
100 100 100 100 100 11 3 5 5 5 5 5 1 0 0 0 18 99 100 100 100 100 98 84 100 100 100 100 100 100 100 100
100 100 100 100 100 100 85 5 5 5 5 8 5 3 2 0 8 94 100 100 100 100 100 100 100 100 100 100 100 100 100 100
100 100 100 100 100 100 97 43 87 11 80 5 13 34 75 84 100 100 100 100 100 100 100 100 100 100 100 100 100 100 100 100

GFSFLT1_prec_cloud_084.txt.gz
Cloud_Cover
0 12 30 45 66 96 100 100 100 100 100 100 100 100 100 100 100 100 100 100 100 100 100 100 100 100 100 100 100 100 100 95
0 48 95 91 83 83 100 100 100 100 100 100 100 100 100 100 100 100 100 100 100 100 100 100 100 100 100 100 100 100 100 93
0 62 90 99 65 87 100 98 99 100 100 100 100 100 100 100 100 100 100 100 100 100 100 100 100 100 100 100 100 100 100 93
0 20 43 68 84 58 100 100 100 100 100 100 100 100 100 100 100 100 100 100 100 100 100 100 100 100 98 100 100 100 100 100
0 0 28 45 93 74 100 100 100 100 100 100 100 100 100 100 100 100 100 100 100 100 100 95 100 100 100 100 100 100 100 100
0 0 0 24 95 100 100 100 100 100 100 100 100 100 100 100 100 100 100 100 100 100 100 100 100 100 100 100 100 100 100 100
2 0 0 2 83 100 100 100 100 100 100 100 100 100 100 100 100 100 100 100 100 100 100 100 100 100 100 100 100 100 100 100
5 0 0 0 35 92 100 100 100 100 100 100 100 100 100 100 100 100 100 100 100 100 100 100 100 100 100 100 100 100 100 100
32 0 0 0 0 1 99 100 100 100 100 100 100 100 100 100 100 100 100 100 100 100 100 100 100 100 100 100 100 100 100 100
82 6 5 1 0 0 24 92 98 99 100 100 100 100 100 100 100 100 100 100 100 100 100 100 100 100 100 100 100 100 100 100
98 99 58 5 0 0 6 5 4 19 80 98 100 100 100 100 100 100 100 100 100 100 100 100 100 100 100 100 100 100 95 90
86 100 100 5 8 0 0 0 0 1 4 42 75 100 100 100 100 100 100 100 100 100 100 100 100 100 100 100 84 100 100 100
100 91 100 57 8 4 0 0 0 0 0 7 11 24 26 79 97 100 100 100 100 100 100 100 100 100 100 100 100 95 56 44
100 100 100 100 19 4 4 0 0 0 0 4 5 4 12 62 100 79 51 94 100 100 100 90 88 100 100 100 100 99 90 97
100 100 100 100 100 6 5 4 0 0 0 0 2 5 49 34 13 53 100 59 71 91 100 100 100 100 93 100 100 100 100 100
96 100 100 100 100 99 5 22 5 1 0 0 0 0 10 90 74 10 7 100 82 86 74 52 55 67 100 99 100 95 88 100
100 97 100 100 100 100 100 100 100 8 5 5 0 0 0 0 0 35 100 96 87 86 99 100 100 100 100 100 97 100 100 100
98 100 100 100 100 100 100 61 17 52 58 41 7 4 0 0 0 0 0 72 100 100 82 100 100 91 98 100 100 100 100 100
69 98 100 100 100 100 100 100 100 100 99 70 36 25 5 5 4 0 20 99 100 100 100 100 100 100 100 100 100 100 100 100

GFSFLT1_prec_cloud_087.txt.gz
Cloud_Cover
0 0 0 0 9 100 100 100 100 100 100 100 100 100 100 100 100 100 100 100 100 100 100 100 100 100 100 100 100 100 100 100
0 0 0 0 27 100 100 99 100 100 100 100 100 100 100 100 100 100 100 100 100 100 100 100 100 100 100 100 100 100 100 100
2 0 0 1 46 100 100 98 85 87 100 100 100 100 100 100 100 100 100 100 100 100 100 100 100 100 100 100 100 100 100 100
5 5 0 36 74 100 100 94 100 94 100 100 100 100 100 100 100 100 100 100 100 100 100 100 100 100 100 100 100 100 100 100
5 5 0 26 51 100 100 100 100 98 91 100 100 100 100 100 100 100 100 100 100 100 100 100 100 100 100 100 100 100 94 100
5 2 0 2 37 100 90 96 96 100 100 100 100 100 100 100 100 100 100 100 100 100 100 100 100 100 100 100 100 98 100 100
5 2 0 0 33 30 100 95 100 100 99 100 100 100 100 100 100 100 100 100 100 100 100 100 100 87 93 100 100 100 100 100
28 6 1 0 7 2 100 99 100 100 100 100 100 100 100 100 100 100 100 100 100 100 100 100 100 100 100 100 100 100 100 100
11 36 0 3 12 0 100 100 100 98 100 100 100 100 100 100 100 100 100 100 100 100 100 100 100 100 100 100 100 100 100 100
78 93 75 5 34 0 1 100 100 100 91 100 100 100 100 100 100 100 100 100 100 100 100 100 100 100 100 100 100 100 100 100
46 27 100 97 100 3 0 6 78 98 100 96 95 100 100 100 100 100 100 100 100 100 100 100 100 100 100 100 100 100 99 100
1 5 33 100 100 87 0 0 4 47 100 100 79 94 100 100 100 100 100 100 100 100 100 100 100 100 100 100 100 100 100 100
5 5 96 100 100 100 54 0 0 1 15 51 100 83 100 100 27 38 100 98 100 100 100 100 100 100 100 100 100 100 100 100
9 5 31 32 98 100 100 41 0 0 0 2 10 75 100 42 88 99 100 58 45 62 100 100 100 100 100 100 100 100 100 100
100 6 6 68 12 100 100 100 85 2 0 0 0 0 4 8 36 82 88 83 74 72 95 100 100 100 100 99 78 54 43 86
50 5 2 88 65 89 100 100 100 65 5 2 0 0 0 7 25 96 100 100 100 63 82 10 37 62 20 19 21 35 18 5
78 77 87 5 20 100 100 100 100 100 85 5 5 0 0 0 0 0 0 21 43 11 21 6 64 32 7 78 27 45 90 100
69 95 79 79 11 40 100 100 100 100 100 100 17 5 5 0 0 0 3 21 14 0 5 14 41 43 100 100 100 100 100 100
32 94 68 100 100 57 10 100 100 100 100 100 100 100 54 4 1 0 0 0 2 38 62 59 59 97 100 100 100 100 100 100

GFSFLT1_prec_cloud_090.txt.gz
Cloud_Cover
0 0 0 0 0 0 17 100 98 80 100 100 100 100 100 100 100 100 100 100 100 100 100 100 100 100 100 100 100 100 100 100
2 0 0 0 0 0 81 100 98 97 100 100 100 100 100 100 100 100 100 100 100 100 100 100 100 100 100 100 100 100 100 100
2 0 0 0 0 0 91 98 91 100 100 100 100 100 100 100 100 100 100 100 100 100 100 100 100 100 100 100 100 100 100 100
0 0 0 0 2 4 98 100 99 100 100 100 100 100 100 100 100 100 100 100 100 100 100 100 100 100 100 100 100 100 100 100
0 0 0 0 31 32 100 100 99 94 100 100 100 13 100 100 100 100 100 100 100 100 100 100 100 100 100 100 100 100 100 99
0 0 5 0 20 100 100 100 100 100 100 100 100 100 100 100 100 100 100 97 100 100 100 100 100 100 100 100 100 100 100 100
4 61 71 4 4 26 100 100 100 100 100 100 100 100 100 100 100 100 100 100 100 100 100 100 100 100 100 100 100 100 100 100
1 97 6 5 6 0 100 100 100 100 100 100 100 100 100 100 100 100 100 100 100 100 100 100 100 100 100 100 100 100 100 100
4 36 32 5 5 0 87 98 100 85 100 100 100 100 100 100 100 100 100 100 100 100 100 100 100 100 100 100 100 100 100 100
15 0 4 13 100 8 6 99 40 84 100 100 100 100 100 100 100 100 100 100 100 100 100 100 100 98 100 100 100 100 100 100
11 6 0 5 18 94 96 74 18 96 100 100 100 100 100 100 94 100 100 100 100 100 100 100 100 100 100 100 100 100 100 100
62 12 0 0 1 22 100 61 91 100 100 100 100 100 96 100 100 100 89 96 100 100 100 100 100 100 100 100 100 100 100 100
37 6 1 5 0 4 100 58 75 17 96 100 100 100 99 100 100 100 100 87 100 100 100 100 100 100 100 100 100 100 100 100
14 5 3 3 0 2 33 100 89 100 20 69 100 100 38 52 29 86 100 100 100 100 100 96 100 100 100 100 100 100 100 100
5 5 5 0 6 8 3 45 100 100 100 95 10 49 21 4 22 29 31 52 54 64 66 96 100 100 75 86 98 100 100 52
5 5 21 16 98 100 0 3 68 93 100 100 98 5 0 0 56 16 36 92 82 37 22 19 24 44 44 6 88 98 100 23
100 22 6 6 17 19 4 3 40 75 100 100 100 100 21 2 0 18 4 95 100 100 38 5 5 99 5 27 65 18 25 62
98 100 5 65 77 18 5 5 15 61 92 98 100 100 100 100 100 20 3 5 84 100 100 30 4 70 100 100 90 71 100 100
100 100 79 51 53 84 96 61 14 6 90 73 83 100 100 100 100 100 100 59 2 5 46 75 79 100 100 100 94 97 100 100

GFSFLT1_prec_cloud_093.txt.gz
Cloud_Cover
5 2 0 0 0 0 0 0 48 100 100 92 100 100 100 100 100 100 100 100 100 100 100 100 100 100 100 100 100 100 100 100
5 1 0 0 0 0 0 0 91 97 100 100 100 100 100 100 100 100 100 100 100 100 100 100 100 100 100 100 100 100 100 100
5 5 2 0 14 0 0 1 99 100 100 100 100 100 100 100 100 100 100 100 100 100 100 100 100 100 100 100 100 100 100 100
9 5 4 3 24 5 1 0 94 100 100 100 100 100 100 100 100 100 100 100 100 100 100 100 100 100 100 100 100 100 100 100
30 25 5 0 40 0 0 0 100 100 100 100 96 99 100 100 100 100 100 100 100 100 100 100 100 100 100 100 100 100 100 100
31 11 5 0 3 3 0 1 100 100 100 100 100 100 100 100 100 100 100 100 100 100 100 100 100 100 100 100 100 100 100 100
46 8 5 5 3 0 0 10 100 100 98 99 13 45 68 100 100 100 100 100 100 100 100 100 100 100 100 100 100 100 100 100
99 53 5 5 8 1 4 46 100 100 100 100 75 100 100 100 100 100 100 100 100 100 100 100 100 100 100 100 100 100 100 100
100 100 31 5 4 5 5 20 90 100 100 88 100 99 100 100 100 100 100 100 100 100 100 100 100 100 100 100 100 100 100 100
100 100 100 84 4 5 1 5 46 100 100 100 100 100 100 100 100 100 100 100 100 100 100 100 100 100 100 100 100 100 100 100
100 100 100 100 17 5 1 0 28 100 100 100 100 100 100 100 100 100 100 100 100 100 100 100 100 100 100 100 100 100 100 100
99 99 100 100 12 2 0 0 25 100 100 100 100 100 100 100 100 100 100 100 100 100 100 100 100 100 100 100 100 100 100 100
100 100 100 74 5 5 0 0 4 94 100 100 100 100 100 100 100 100 100 83 100 100 100 100 100 100 100 100 100 100 100 100
97 100 100 100 11 5 5 0 0 45 100 100 100 100 100 100 76 43 100 100 97 60 90 98 100 100 100 100 100 100 100 100
92 100 100 100 72 23 5 5 5 2 92 100 100 100 100 100 83 16 3 64 89 94 99 99 100 100 100 100 100 53 12 34
88 98 100 100 79 99 17 5 98 95 3 96 100 100 100 100 100 44 20 17 0 5 4 34 80 35 43 16 54 81 96 75
87 28 100 100 98 55 22 5 5 56 100 4 91 100 100 100 100 100 100 45 10 18 0 0 3 5 5 5 85 95 54 66
92 100 100 100 100 100 72 73 5 5 45 36 6 79 41 99 100 100 100 99 81 36 100 95 7 5 4 5 45 70 51 73
100 100 100 100 100 86 100 100 94 7 43 5 5 5 22 92 97 100 100 100 100 100 100 100 100 99 100 98 84 100 100 100

GFSFLT1_prec_cloud_096.txt.gz
Cloud_Cover
90 100 23 7 1 0 0 0 24 33 54 89 100 100 100 100 100 100 100 100 100 100 100 100 100 100 100 100 100 100 100 100
65 100 6 11 28 22 4 34 100 86 100 100 100 100 100 100 100 100 100 100 100 100 100 100 100 100 100 100 100 100 100 100
100 100 16 21 46 27 30 65 100 96 88 92 100 100 100 100 100 100 100 100 100 100 100 100 100 100 100 100 100 100 100 100
100 100 96 60 50 47 40 71 89 60 98 44 100 100 100 100 100 100 100 100 100 100 100 100 100 100 100 100 100 100 100 100
100 100 61 46 52 27 31 68 78 91 85 75 94 100 100 100 100 100 100 100 100 100 100 100 100 100 100 100 100 100 100 100
100 62 5 29 52 38 38 90 100 100 51 87 100 100 100 100 100 100 100 100 100 100 100 100 100 100 100 100 100 100 100 100
100 100 54 91 57 36 37 100 100 100 33 46 100 100 100 100 100 100 100 100 100 100 100 100 100 100 100 100 100 100 100 100
100 100 81 100 84 45 53 100 100 100 43 90 99 100 84 100 95 100 100 100 100 100 100 100 100 100 100 100 100 100 100 100
100 92 67 54 58 44 51 100 100 100 40 24 35 94 74 97 100 100 100 100 100 100 100 100 100 100 100 100 100 100 100 100
100 25 64 100 100 100 58 72 100 100 38 26 52 74 62 100 100 100 100 100 100 100 100 100 100 100 100 100 100 100 100 100
100 97 99 100 100 100 100 66 82 100 66 32 15 20 7 100 100 100 100 100 100 100 100 100 100 100 100 100 100 100 100 100
100 100 100 99 100 100 100 99 61 100 96 26 83 30 47 77 97 100 100 100 100 100 100 100 100 100 100 100 100 100 100 100
100 100 100 100 100 100 100 32 34 90 100 36 100 100 98 90 100 100 100 95 99 100 100 100 100 100 100 100 100 100 100 100
100 100 100 100 100 100 100 100 5 5 28 62 99 100 100 100 100 100 100 100 100 100 100 100 100 100 100 100 100 100 100 100
94 100 100 100 12 92 100 96 29 14 5 30 89 100 100 100 100 100 100 100 89 89 100 100 100 100 100 100 100 100 100 100
98 99 98 100 100 100 100 100 100 47 26 6 34 100 100 100 100 100 100 100 30 1 1 16 79 100 100 100 100 98 99 99
100 94 100 100 100 100 99 44 74 98 30 5 5 91 100 100 100 100 100 95 96 100 36 5 5 2 0 5 26 24 51 95
97 98 100 100 99 100 100 100 100 100 100 100 12 5 10 88 100 100 100 100 100 100 100 97 18 10 5 5 5 21 39 60
76 62 99 100 78 75 100 100 100 100 100 100 100 56 31 42 47 94 100 100 100 100 100 99 100 100 96 82 63 100 100 100

GFSFLT1_prec_cloud_099.txt.gz
Cloud_Cover
65 32 5 46 24 94 25 58 44 44 70 69 60 95 100 100 100 100 100 100 100 100 100 100 100 100 100 100 100 100 100 100
100 32 21 55 36 100 53 63 92 100 100 100 100 100 100 100 100 100 100 100 100 100 100 100 100 100 100 100 100 100 100 100
100 94 98 100 71 100 51 38 100 100 100 100 94 96 98 100 100 100 100 100 100 100 100 100 100 100 100 100 100 100 100 100
100 41 83 100 92 91 57 71 100 100 79 72 91 92 100 100 100 100 100 100 100 100 100 100 100 100 100 100 100 100 100 100
5 5 47 100 84 90 68 100 100 100 62 100 100 100 100 100 100 100 100 100 100 100 100 100 100 100 100 100 100 100 100 100
2 1 97 100 99 93 100 100 100 100 47 72 42 92 91 100 99 100 100 98 100 100 100 100 100 100 100 100 100 100 100 100
4 5 100 100 100 100 100 100 91 63 88 40 2 50 100 82 100 100 100 100 100 100 100 100 100 100 100 100 100 100 100 100
3 89 100 100 100 100 100 100 100 100 100 46 9 65 62 86 100 100 100 100 100 100 100 100 100 100 100 100 100 100 100 100
40 100 100 100 100 100 100 100 100 100 100 42 40 23 94 100 100 100 100 100 100 100 100 100 100 100 100 100 100 100 100 100
60 100 100 96 99 100 85 100 100 100 100 59 32 8 31 6 93 97 100 100 100 100 100 100 100 100 100 100 100 100 100 100
100 100 100 100 98 94 74 100 96 100 100 70 19 3 5 1 34 100 100 100 100 100 100 100 100 100 100 100 100 100 100 100
100 100 100 73 70 100 100 100 76 100 100 58 11 14 2 6 1 100 97 99 100 100 100 100 100 100 100 100 100 100 100 100
100 100 100 63 100 100 100 100 80 100 100 91 8 26 2 4 16 6 96 68 100 100 100 100 100 100 100 100 100 100 100 100
100 100 100 83 100 100 100 94 100 100 100 100 24 5 11 0 3 5 92 97 4 95 100 100 100 100 100 100 100 100 100 100
100 100 100 100 100 100 100 100 100 100 100 100 54 5 5 1 0 2 66 100 86 2 52 100 100 100 100 100 100 100 100 100
100 100 100 100 62 100 100 99 97 100 100 100 100 15 16 5 2 21 64 100 100 94 39 5 73 100 100 100 100 100 100 100
100 100 100 100 79 100 100 100 100 100 100 100 100 100 49 5 10 67 53 100 100 100 100 100 98 8 0 4 5 27 58 90
100 100 100 100 100 100 100 100 100 100 100 100 100 100 100 78 100 100 100 100 100 100 100 89 60 40 8 11 5 5 5 6
100 100 100 100 100 77 95 100 100 100 100 100 100 100 100 100 100 100 100 100 100 100 100 98 37 5 5 6 9 17 28 25

GFSFLT1_prec_cloud_102.txt.gz
Cloud_Cover
5 39 97 62 100 11 7 28 98 62 69 100 100 100 100 100 100 100 100 100 94 100 100 100 100 100 100 100 100 100 100 100
5 5 5 10 99 45 26 52 99 47 100 100 100 100 100 100 100 100 88 100 100 100 100 100 100 100 100 100 100 100 100 60
12 23 75 100 100 85 69 86 100 44 100 100 100 97 100 100 100 100 100 100 100 100 100 100 100 100 100 100 100 100 100 100
42 52 100 100 100 86 100 88 100 86 63 86 100 100 100 100 100 100 100 100 100 100 100 100 100 100 100 100 100 100 100 100
97 97 100 100 99 99 100 78 99 90 98 100 100 100 74 85 95 100 100 89 100 100 100 100 100 100 100 100 100 100 100 100
66 100 99 100 100 99 100 79 100 97 100 100 100 99 60 100 100 100 100 100 100 100 100 100 100 100 100 100 100 100 100 100
51 76 94 100 99 88 100 100 100 100 100 100 100 90 80 88 100 100 100 96 98 100 100 100 100 100 100 100 100 100 100 100
43 9 5 38 85 93 100 100 100 100 100 100 62 2 17 100 99 100 100 100 100 100 100 100 100 100 100 100 100 100 100 100
7 5 0 8 73 100 100 100 100 100 83 57 76 1 4 100 60 100 100 100 100 100 100 100 100 100 100 100 100 100 100 100
0 0 0 0 41 90 100 100 100 100 11 100 86 25 28 42 47 70 83 100 89 100 100 100 100 100 100 100 100 100 100 100
0 0 0 2 89 98 100 100 100 100 52 100 74 51 8 0 8 53 93 96 98 100 100 100 100 100 100 100 100 100 100 100
5 3 0 5 100 88 100 100 100 100 99 100 100 54 21 0 1 20 30 86 100 100 100 100 100 100 100 100 100 100 100 100
64 17 6 100 100 100 100 100 100 100 100 100 100 36 11 1 17 23 23 11 98 100 100 100 100 100 100 100 100 100 100 100
100 96 100 100 100 100 100 100 100 100 100 100 100 59 36 18 2 21 1 7 2 88 100 100 100 100 100 100 100 100 100 100
100 100 100 100 100 100 100 100 100 100 100 100 100 98 68 26 5 5 0 2 52 37 56 93 100 100 100 100 100 100 100 100
100 100 100 100 100 100 100 100 100 100 100 100 100 100 69 12 5 5 5 1 47 99 68 38 78 58 93 100 100 100 100 100
100 100 100 100 100 100 100 100 100 100 100 100 100 100 97 99 21 5 6 14 48 100 100 99 100 52 6 5 20 100 100 100
100 100 100 100 100 100 100 100 100 100 100 100 100 100 100 100 100 100 100 100 100 100 100 100 100 84 92 99 73 36 24 16
100 100 100 100 100 100 100 100 100 100 100 100 100 100 100 100 100 100 100 100 100 100 100 100 100 100 100 100 96 100 100 100

GFSFLT1_prec_cloud_105.txt.gz
Cloud_Cover
83 4 3 2 8 12 17 5 5 81 100 100 100 100 100 100 98 100 98 75 100 100 100 100 100 100 100 100 100 100 100 100
24 0 0 1 5 5 14 5 29 97 100 100 100 100 100 99 100 100 100 100 100 100 100 100 100 100 100 100 100 100 100 100
4 0 3 5 5 5 5 12 63 59 95 100 98 100 100 100 100 100 100 100 100 100 100 100 100 100 100 100 100 100 100 100
2 1 1 5 4 5 56 71 96 53 76 100 99 100 100 100 100 100 100 100 100 100 99 100 100 100 100 100 100 100 100 100
0 11 5 5 5 8 52 60 100 92 92 100 72 20 70 29 84 100 100 100 100 100 100 100 100 100 100 100 100 100 100 100
0 5 100 70 9 5 93 99 100 100 98 68 86 42 89 97 100 100 100 100 100 100 100 100 100 100 100 100 100 100 100 100
0 5 87 100 16 25 62 100 100 100 100 85 56 100 42 50 60 100 100 99 100 96 95 100 100 100 100 100 100 100 100 100
0 1 5 100 100 89 87 79 100 100 100 97 100 100 32 24 95 100 100 100 100 100 100 100 100 100 100 100 100 100 100 100
0 3 89 100 100 75 87 99 100 100 100 100 100 53 22 15 30 95 93 89 100 100 100 100 100 100 100 100 100 100 100 100
0 3 0 54 85 77 100 100 100 100 100 100 100 43 15 35 66 100 100 96 98 97 100 100 100 100 100 100 100 100 100 100
6 3 0 0 3 54 100 100 100 100 100 100 84 51 37 49 66 100 100 70 87 87 100 100 100 100 100 100 100 100 100 100
70 6 5 38 94 100 100 100 100 100 100 100 89 100 64 64 65 100 97 49 88 97 100 100 100 100 100 100 100 100 100 100
46 100 93 98 86 100 100 100 100 100 100 100 99 100 90 76 73 86 90 54 81 100 100 100 100 100 100 100 100 100 100 100
56 100 100 100 100 100 100 100 100 100 100 100 100 100 100 92 84 89 83 71 100 100 100 100 100 100 100 100 100 100 100 100
69 100 100 100 100 100 100 100 100 100 100 100 100 100 96 80 100 91 79 74 89 100 100 100 100 100 100 100 100 100 100 100
100 100 100 100 100 100 100 100 100 100 100 100 100 100 100 100 100 100 60 62 60 73 100 100 100 100 100 100 100 100 100 100
100 100 100 100 100 100 100 100 100 100 100 100 100 100 100 100 100 100 96 96 99 61 100 100 100 100 100 100 100 100 100 100
100 100 100 100 100 100 100 100 100 100 100 100 100 100 100 100 100 100 100 99 92 38 96 100 100 100 75 33 87 100 100 100
100 100 100 100 100 100 100 100 100 100 100 100 100 100 100 100 100 100 100 100 100 100 100 100 100 100 100 100 64 47 78 79

GFSFLT1_prec_cloud_108.txt.gz
Cloud_Cover
2 4 3 18 18 97 100 100 95 5 38 71 100 100 100 94 79 53 98 97 97 100 85 82 100 100 100 100 100 100 100 100
0 5 5 5 5 5 56 100 100 3 91 100 100 100 100 100 95 74 71 89 74 100 100 100 100 100 100 100 100 100 100 100
39 6 8 5 5 5 44 100 100 21 100 100 69 100 100 100 81 100 64 73 70 97 100 100 100 100 100 100 100 100 100 100
5 5 9 8 18 7 5 17 56 83 5 100 100 100 100 100 100 96 100 78 90 100 100 100 100 100 100 100 100 100 100 100
5 8 33 92 14 5 5 2 84 62 6 95 100 75 77 46 86 81 100 100 100 100 100 100 100 100 100 100 100 100 100 100
72 5 86 81 12 3 0 7 100 71 22 100 100 94 5 11 42 100 74 100 100 100 100 100 100 100 100 100 100 100 100 100
51 66 82 50 9 4 0 11 100 100 100 100 94 93 9 15 50 88 91 100 100 100 100 100 100 100 100 100 100 100 100 100
54 100 69 10 66 5 0 4 100 100 100 100 100 83 44 4 20 30 100 100 100 100 100 100 100 100 100 100 100 100 100 100
98 22 5 14 67 20 5 5 86 100 94 100 100 100 55 14 76 0 18 98 51 100 100 100 100 100 100 100 100 100 100 100
5 4 5 60 86 5 1 22 100 100 100 100 100 100 49 21 33 11 54 99 73 100 100 100 100 100 100 100 100 100 100 100
37 3 4 6 37 4 1 21 100 100 100 100 100 100 70 29 52 83 70 72 77 70 97 100 100 100 100 100 100 100 100 100
5 9 62 5 5 5 4 87 100 100 100 100 100 100 94 70 76 91 84 33 97 70 98 100 100 100 100 100 100 100 100 100
39 9 28 5 5 99 100 100 100 100 100 100 100 100 87 100 100 100 98 51 100 86 59 88 100 100 100 100 100 100 100 100
23 6 5 5 34 100 100 100 100 100 100 100 100 100 100 100 100 100 100 51 99 86 76 96 100 100 100 100 100 100 100 100
93 66 6 17 84 100 100 100 100 100 100 100 100 100 100 100 100 100 100 78 99 98 100 94 95 100 100 100 100 100 100 100
99 100 62 73 100 100 100 100 100 100 100 100 100 100 100 100 100 100 100 100 100 88 100 100 100 98 100 100 100 100 100 100
99 72 62 100 100 100 100 100 100 100 100 100 100 100 100 100 100 100 100 100 100 100 90 100 100 79 96 100 100 100 100 100
100 100 100 100 100 100 100 100 100 100 100 100 100 100 100 100 100 100 100 100 100 100 100 100 100 100 96 73 100 100 100 100
100 100 100 100 100 100 100 100 100 100 100 100 100 100 100 100 100 100 100 100 100 100 100 100 100 100 100 100 96 100 100 100

GFSFLT1_prec_cloud_111.txt.gz
Cloud_Cover
100 100 19 91 30 49 30 25 94 38 48 24 7 46 24 11 8 30 43 93 92 91 79 94 90 73 100 100 100 100 100 100
61 49 80 100 18 9 8 17 48 15 6 5 5 67 80 88 5 28 25 62 66 89 100 100 100 100 96 100 100 100 100 100
14 16 21 69 12 5 5 49 17 54 12 5 17 98 100 100 52 22 23 75 100 96 99 100 100 99 100 100 100 100 100 100
93 8 5 7 15 70 14 70 97 100 93 41 94 100 100 100 100 62 91 98 100 100 94 95 100 100 100 100 100 100 100 100
44 5 5 5 7 92 94 82 99 99 92 6 99 76 100 100 100 99 100 100 59 98 84 93 100 100 100 100 100 100 100 100
88 66 5 5 11 92 100 78 100 100 100 63 38 100 96 100 93 80 100 100 11 100 89 100 100 100 100 82 100 100 100 100
100 100 60 5 6 73 100 100 92 90 91 12 30 98 88 100 100 72 100 100 99 81 100 100 100 100 100 87 100 100 100 100
100 100 56 5 5 31 67 80 100 100 7 12 64 100 60 98 100 100 100 99 82 66 100 100 100 100 100 100 100 100 100 100
100 100 77 14 53 28 85 100 100 22 20 56 100 100 35 100 100 99 70 46 87 50 100 100 98 100 100 100 100 100 100 100
100 100 100 84 68 100 100 100 67 8 10 96 100 78 99 100 100 100 61 25 18 61 100 100 100 87 99 100 100 100 100 100
100 86 100 5 49 96 88 29 45 60 81 93 91 87 100 100 100 89 43 8 8 100 100 100 100 100 100 100 100 100 100 100
100 100 100 100 100 100 100 48 10 43 50 89 100 100 100 100 100 92 42 19 99 100 99 100 100 100 100 100 100 100 100 100
100 100 100 93 41 100 90 87 99 100 100 100 100 100 100 100 100 51 31 20 99 93 89 77 100 100 100 100 100 100 100 100
96 97 54 81 82 47 90 100 100 100 100 100 100 100 100 100 100 75 88 85 97 64 72 100 100 100 100 100 100 100 100 100
89 57 76 100 98 90 26 98 100 100 100 100 100 100 100 100 100 99 100 100 100 100 100 100 100 100 100 100 100 100 100 100
93 86 89 78 46 39 59 100 100 100 100 100 100 100 100 100 100 100 100 100 100 100 71 100 100 100 100 100 100 100 100 100
78 98 100 99 96 84 100 100 100 100 100 100 100 100 100 100 100 100 100 100 100 100 100 100 100 100 100 83 99 100 100 100
100 100 100 100 100 100 100 100 100 100 100 100 100 100 100 100 100 100 100 100 100 94 100 100 100 70 28 100 49 100 100 100
100 100 100 100 100 100 100 100 100 100 100 100 100 100 100 100 100 100 100 100 100 100 100 100 100 94 100 98 86 100 100 100

GFSFLT1_prec_cloud_114.txt.gz
Cloud_Cover
100 100 100 100 100 100 100 100 85 29 43 39 6 6 8 0 5 23 24 96 75 41 80 0 0 20 49 96 90 58 100 100
100 100 100 100 100 100 100 100 55 28 72 14 17 5 27 0 2 14 61 88 100 89 100 1 25 54 92 58 99 100 100 100
99 100 100 100 99 100 100 65 88 90 90 39 15 32 24 14 3 36 5 5 17 99 50 0 28 100 98 100 100 100 100 100
89 18 5 45 100 51 9 94 17 21 69 98 46 51 14 54 54 31 100 81 71 100 5 42 30 100 100 98 100 83 100 100
100 94 5 77 100 74 100 72 90 66 99 78 100 96 80 67 19 78 86 100 100 100 89 64 98 64 100 100 100 82 90 100
100 100 47 5 94 100 100 97 21 63 60 68 99 100 67 99 35 96 100 100 100 100 100 97 100 100 73 74 100 98 100 100
100 100 100 100 98 68 93 37 65 48 43 74 98 100 100 98 44 40 100 100 100 100 100 100 100 100 100 100 70 92 100 100
100 100 100 100 13 30 38 100 100 80 56 64 50 98 100 100 100 16 100 100 100 100 99 100 99 100 100 100 100 99 98 100
100 100 100 100 95 97 90 100 100 64 31 18 20 100 100 100 96 85 99 100 100 100 100 84 98 100 100 100 100 100 100 100
100 100 100 100 100 58 78 99 100 93 38 5 93 100 100 100 93 77 100 100 100 100 98 100 94 82 100 100 100 100 100 100
81 99 100 100 100 100 100 100 85 29 10 100 100 100 100 87 13 100 100 100 100 72 65 100 93 100 100 100 100 100 100 100
100 100 100 100 100 100 86 94 98 100 66 5 93 44 16 10 28 100 100 100 100 36 53 93 100 100 100 100 100 100 100 100
100 100 100 100 100 100 100 100 100 100 100 100 94 93 12 14 82 100 100 98 65 99 43 97 100 100 100 100 100 100 100 100
94 54 99 100 100 100 100 81 100 100 100 100 100 100 100 14 100 100 100 99 90 100 100 74 100 100 100 100 100 100 100 100
100 99 94 100 90 100 100 93 100 100 100 100 100 100 100 34 100 100 100 64 100 100 100 100 100 100 100 100 100 100 100 100
100 100 100 100 100 100 100 100 88 59 100 100 100 100 100 100 100 100 100 94 100 100 100 100 100 90 100 100 100 100 100 100
100 100 100 100 100 100 100 100 100 74 100 100 100 100 96 100 100 100 100 100 100 100 100 100 100 100 100 100 100 100 100 100
100 100 100 100 100 100 100 100 100 96 100 100 100 100 100 100 100 100 100 100 100 100 100 100 100 100 99 100 96 96 100 100
100 100 100 100 100 100 100 100 100 97 100 100 100 100 100 100 100 100 100 100 100 100 100 100 100 100 71 100 94 100 100 100

GFSFLT1_prec_cloud_120.txt.gz
Cloud_Cover
0 0 2 3 0 0 0 9 100 100 100 96 2 12 100 100 100 100 100 96 38 5 11 4 9 10 30 36 36 46 67 100
41 4 0 5 3 0 0 5 98 100 100 100 99 5 62 100 100 100 100 92 7 5 6 81 100 100 21 29 66 100 100 100
100 100 56 5 43 5 5 6 98 100 100 100 100 88 100 100 100 100 100 48 97 5 5 27 54 100 100 74 98 100 100 100
100 100 74 60 37 66 93 5 73 100 100 100 100 100 100 100 100 100 100 100 90 8 8 12 91 100 100 100 98 100 100 100
100 100 100 100 100 19 78 99 54 47 54 100 100 100 100 100 85 22 92 100 8 40 83 84 93 100 100 100 100 100 100 100
100 100 84 100 79 5 24 97 100 100 100 100 100 100 100 100 100 5 100 16 5 68 100 100 100 95 100 100 100 99 90 100
100 78 12 7 85 90 100 100 100 100 100 100 80 100 100 100 92 95 100 5 72 89 99 84 100 99 100 100 100 100 100 100
95 78 90 96 96 100 100 100 100 100 100 98 100 100 100 100 100 100 100 38 100 100 46 92 87 100 100 100 100 100 100 100
96 59 5 8 5 10 88 100 100 100 100 99 43 100 98 100 100 100 99 98 100 100 97 97 99 100 100 100 100 100 100 100
11 13 72 96 100 100 100 100 100 100 100 100 99 100 26 98 97 39 61 100 100 88 60 100 100 100 100 100 100 100 100 100
31 33 74 78 98 100 95 92 97 100 100 98 100 66 100 100 100 100 67 87 100 67 39 100 100 100 100 100 100 100 100 100
67 98 94 92 92 98 100 58 77 100 100 100 96 92 100 100 100 100 100 78 98 100 100 94 100 100 100 100 100 100 100 100
100 100 100 97 100 100 100 74 100 100 100 100 100 100 96 100 100 100 64 100 100 100 100 100 100 100 100 100 100 100 100 100
100 99 100 97 100 98 80 17 21 100 100 98 87 91 100 100 100 100 100 100 100 100 100 100 100 100 100 100 100 100 83 100
100 100 100 100 99 100 100 100 100 69 86 100 67 83 100 100 100 100 100 92 100 100 100 100 100 100 100 100 100 100 100 100
100 100 100 100 100 100 96 100 100 64 98 100 98 71 96 100 97 100 100 100 100 100 100 97 100 100 100 100 100 100 100 96
100 100 100 100 100 100 100 100 100 99 100 100 100 97 100 100 100 100 100 100 100 100 100 96 100 100 100 100 100 100 100 100
100 100 100 100 100 100 100 100 100 100 100 100 100 100 100 100 100 100 100 100 100 100 100 100 100 100 100 100 100 100 100 100
100 100 100 100 100 100 100 100 100 100 100 100 97 100 100 100 100 100 100 100 100 100 100 100 82 98 100 100 100 100 100 100

GFSFLT1_prec_cloud_123.txt.gz
Cloud_Cover
0 5 5 43 100 27 5 5 5 2 5 7 65 34 28 93 72 28 11 52 100 100 100 100 33 47 70 72 71 84 76 84
4 4 5 5 95 88 42 49 18 5 5 5 24 36 35 29 38 48 29 83 100 100 100 100 57 84 56 83 93 100 99 100
100 35 24 5 5 88 5 9 62 8 91 99 44 5 92 30 41 100 100 88 64 100 100 100 100 100 100 100 100 100 100 100
100 100 92 79 91 5 3 6 13 5 12 100 100 28 65 100 100 100 100 100 100 100 100 100 100 29 51 99 100 100 100 100
100 100 94 23 30 5 5 4 2 9 92 100 100 46 58 100 100 100 100 100 100 100 100 100 100 63 59 96 100 100 100 100
99 100 100 11 5 5 5 11 98 100 31 92 97 100 100 100 100 100 100 100 100 100 100 94 100 100 100 100 100 100 100 100
5 100 100 15 5 9 25 100 100 100 100 99 100 100 100 100 100 100 100 100 100 100 95 95 100 97 100 100 100 100 100 100
5 78 43 25 4 9 95 100 100 100 100 100 100 100 100 100 100 100 100 100 99 99 99 100 100 94 56 100 100 100 100 100
5 29 77 96 94 83 100 100 100 100 100 100 96 99 100 100 100 100 100 100 97 6 45 72 100 58 100 99 96 100 97 100
23 36 100 100 100 99 100 100 100 100 100 100 95 95 100 62 100 100 100 100 100 20 17 68 78 54 96 89 80 100 100 100
100 96 94 100 89 100 100 99 99 100 100 100 100 100 100 100 100 96 100 100 100 99 10 60 99 79 100 100 100 100 100 100
100 87 100 100 90 100 100 100 100 100 100 100 88 95 100 100 100 100 100 100 100 95 100 100 97 95 100 100 100 100 100 100
100 95 96 100 100 100 100 100 100 100 100 100 92 89 25 5 44 64 100 99 96 92 100 100 100 100 100 100 100 100 100 100
100 100 100 100 99 100 98 100 81 10 5 5 28 5 11 65 5 28 81 99 100 100 100 100 100 100 100 100 100 100 100 100
100 98 96 88 80 96 100 98 90 88 96 100 92 12 64 83 100 88 26 100 100 100 100 100 100 100 100 100 100 100 100 100
100 100 100 100 100 100 100 100 98 100 100 84 75 95 100 100 100 100 56 100 100 100 100 100 100 100 100 100 100 100 100 100
100 100 100 100 100 100 100 100 100 100 100 100 100 100 100 100 100 100 100 100 100 100 100 100 100 100 100 100 100 100 100 100
100 100 100 100 100 100 100 100 100 100 100 99 100 100 100 100 100 96 100 100 100 100 100 100 100 100 100 100 100 100 100 100
100 100 100 100 100 100 100 100 100 100 100 100 100 100 100 100 100 100 100 100 100 100 100 100 100 100 100 100 100 100 100 100

GFSFLT1_prec_cloud_126.txt.gz
Cloud_Cover
100 100 100 100 58 49 100 98 5 2 4 9 37 55 26 42 14 27 58 94 95 68 53 62 52 100 100 55 22 88 95 99
100 100 100 100 78 5 98 100 15 15 5 32 74 56 81 75 38 9 16 72 58 68 89 48 100 100 100 91 100 100 100 100
2 5 77 100 100 34 6 83 100 88 2 5 5 5 57 61 92 67 100 76 44 92 88 97 100 100 95 100 100 100 100 100
0 3 14 84 100 99 32 54 73 100 65 35 94 52 61 100 100 97 63 100 74 33 85 86 100 100 100 100 86 100 100 100
0 3 100 100 99 100 92 44 85 100 76 8 79 23 72 88 80 81 99 100 100 100 100 98 100 100 100 100 99 45 100 100
0 0 100 100 100 98 100 100 100 100 100 98 100 29 48 44 42 99 100 100 100 100 100 100 100 100 100 100 82 89 100 100
0 0 90 100 9 33 83 100 100 100 86 94 100 100 47 52 73 78 100 100 100 100 100 100 83 100 100 100 100 100 100 100
21 3 44 8 77 70 89 100 100 92 81 100 100 86 98 100 100 100 100 100 100 100 100 100 100 100 100 100 100 100 100 100
58 33 85 84 100 100 81 100 100 100 100 99 59 96 100 100 100 100 100 100 100 100 100 100 100 100 100 99 100 100 100 76
99 88 100 100 100 87 90 93 53 100 100 100 100 93 100 100 100 100 100 100 100 100 100 100 100 100 100 100 100 93 76 98
100 100 100 100 87 29 39 79 100 100 100 100 100 100 100 100 100 100 100 100 100 100 100 100 100 100 100 100 100 92 99 100
100 100 100 100 87 87 94 75 88 100 77 51 87 100 100 100 100 100 100 100 100 100 100 98 100 100 100 100 100 100 100 100
100 100 100 100 100 100 100 100 100 100 100 100 100 100 100 100 100 100 52 95 100 100 100 99 100 100 100 100 100 100 100 100
100 100 100 100 100 100 100 100 100 100 100 100 100 100 100 100 100 98 82 19 66 96 100 100 100 100 100 100 100 100 100 100
100 100 100 100 100 100 100 100 100 100 100 99 99 100 100 97 100 98 55 44 36 40 45 100 100 100 100 100 100 100 100 100
100 100 100 100 100 100 100 100 100 100 100 97 98 100 100 100 100 100 96 46 54 76 88 100 100 100 100 100 100 100 100 100
100 100 100 100 100 100 100 100 100 100 96 97 100 95 65 88 100 100 100 87 56 90 100 100 100 100 100 100 100 100 100 100
100 100 100 100 100 100 100 100 100 100 100 100 100 100 100 100 100 100 100 100 72 100 100 100 100 100 100 100 100 100 100 100
100 100 100 100 100 100 100 100 100 100 100 100 100 100 100 100 100 100 100 100 100 100 100 100 100 100 100 100 100 100 100 100